Illinois River (Oklahoma), Gore (07198000)

StateOklahomaLatestHigh (2440 cfs)
RiverIllinois RiverRatingObservedEstimated
Updated2026-05-10 9:30 (47 minutes ago)Flood - The river is flooding. Obstacles can be treacherous or deadly. The river should be avoided at this stage for casual trips and definitely for the inexperienced. Trips should be attempted only with protective gear and equipment.Flood(none)7838
Discharge2440 cfs (median: 1840 cfs)High - The river is high and potentially dangerous, especially for the young and / or inexperienced. Normal stream obstacles are sometimes difficult to navigate. Extended distances can be attempted, but canoe travel may not be advisable.High(none)1752
Height9.98 feetGood - Conditions are ideal for a canoe or kayak. Boats typically will drag on fewer than one-quarter of riffles, if at all, and portages are unnecessary or rare. Normal float lengths can be attempted without a problem.Good(none)1208
TrendFalling (falling over 24 hours)Low - River is low but can still be floated. Some riffles are okay but most come with significant dragging and might need a portage. Float lengths should be reduced to accommodate low flow, dragging, and portages.Low(none)956
USGSExternal icon USGS Site (External icon Duck Duck Go Maps)Poor - River is too low to float comfortably. Most or all riffles will drag or must be portaged and some obstacles (such as slick shelf rock) cause undue problems. Avoid the river at this stage for casual paddling trips.Poor(none)101

Trending Data

Plot Image

Trips for Illinois River (Oklahoma), Gore (07198000)

DateStartEndDistanceConditionDischargeHeightFishingDetails

A total of 0 rows are displayed.

Condition Descriptions

Fishing Conditions

Fish Species

Notes

Classic Trip List

The classic River Trips application is still available for use. It is updated with the new system using a data retrofit. It is no longer maintained. The original River Trips application is no longer updated (as of 1 Dec 2016) but can be checked for errors or for the condition of the data before it was converted to the new system.

Gauge Data Table

ObservationHeightDischargeMaximum
Discharge
Minimum
Discharge
Mean
Discharge
P05P10P20P25P50
(Median)
P75P80P90P95
2026-05-10 09:30 9.98 2440 14700 (2022) 25 (1992) 3300 44 122 727 871 1840 3950 5460 10700 13400
2026-05-10 08:30 1 2460 14700 (2022) 25 (1992) 3300 44 122 727 871 1840 3950 5460 10700 13400
2026-05-10 07:30 1 2460 14700 (2022) 25 (1992) 3300 44 122 727 871 1840 3950 5460 10700 13400
2026-05-10 06:30 1 2460 14700 (2022) 25 (1992) 3300 44 122 727 871 1840 3950 5460 10700 13400
2026-05-10 05:30 9.99 2450 14700 (2022) 25 (1992) 3300 44 122 727 871 1840 3950 5460 10700 13400
2026-05-10 04:30 10.01 2470 14700 (2022) 25 (1992) 3300 44 122 727 871 1840 3950 5460 10700 13400
2026-05-10 03:30 10.04 2500 14700 (2022) 25 (1992) 3300 44 122 727 871 1840 3950 5460 10700 13400
2026-05-10 02:30 10.13 2600 14700 (2022) 25 (1992) 3300 44 122 727 871 1840 3950 5460 10700 13400
2026-05-10 01:30 10.23 2720 14700 (2022) 25 (1992) 3300 44 122 727 871 1840 3950 5460 10700 13400
2026-05-10 00:30 11.11 3750 14700 (2022) 25 (1992) 3300 44 122 727 871 1840 3950 5460 10700 13400
2026-05-09 23:30 11.31 4000 14700 (2022) 25 (1992) 3300 44 122 727 871 1840 3950 5460 10700 13400
2026-05-09 22:30 11.31 4000 14700 (2022) 14 (2001) 3100 46 79 165 552 1540 3730 5150 10300 13700
2026-05-09 21:30 11.32 4010 14700 (2022) 14 (2001) 3100 46 79 165 552 1540 3730 5150 10300 13700
2026-05-09 20:30 11.33 4020 14700 (2022) 14 (2001) 3100 46 79 165 552 1540 3730 5150 10300 13700
2026-05-09 19:30 11.33 4020 14700 (2022) 14 (2001) 3100 46 79 165 552 1540 3730 5150 10300 13700
2026-05-09 18:30 11.32 4010 14700 (2022) 14 (2001) 3100 46 79 165 552 1540 3730 5150 10300 13700
2026-05-09 17:30 11.31 4000 14700 (2022) 14 (2001) 3100 46 79 165 552 1540 3730 5150 10300 13700
2026-05-09 16:30 11.33 4020 14700 (2022) 14 (2001) 3100 46 79 165 552 1540 3730 5150 10300 13700
2026-05-09 15:30 11.33 4020 14700 (2022) 14 (2001) 3100 46 79 165 552 1540 3730 5150 10300 13700
2026-05-09 14:30 11.33 4020 14700 (2022) 14 (2001) 3100 46 79 165 552 1540 3730 5150 10300 13700
2026-05-09 13:30 11.33 4020 14700 (2022) 14 (2001) 3100 46 79 165 552 1540 3730 5150 10300 13700
2026-05-09 12:30 11.33 4020 14700 (2022) 14 (2001) 3100 46 79 165 552 1540 3730 5150 10300 13700
2026-05-09 11:30 11.32 4010 14700 (2022) 14 (2001) 3100 46 79 165 552 1540 3730 5150 10300 13700
2026-05-09 10:30 11.32 4010 14700 (2022) 14 (2001) 3100 46 79 165 552 1540 3730 5150 10300 13700
2026-05-09 09:30 11.32 4010 14700 (2022) 14 (2001) 3100 46 79 165 552 1540 3730 5150 10300 13700
2026-05-09 08:30 11.32 4010 14700 (2022) 14 (2001) 3100 46 79 165 552 1540 3730 5150 10300 13700
2026-05-09 07:30 11.33 4020 14700 (2022) 14 (2001) 3100 46 79 165 552 1540 3730 5150 10300 13700
2026-05-09 06:30 11.33 4020 14700 (2022) 14 (2001) 3100 46 79 165 552 1540 3730 5150 10300 13700
2026-05-09 05:30 11.33 4020 14700 (2022) 14 (2001) 3100 46 79 165 552 1540 3730 5150 10300 13700
2026-05-09 04:30 11.34 4040 14700 (2022) 14 (2001) 3100 46 79 165 552 1540 3730 5150 10300 13700
2026-05-09 03:30 11.35 4050 14700 (2022) 14 (2001) 3100 46 79 165 552 1540 3730 5150 10300 13700
2026-05-09 02:30 11.34 4040 14700 (2022) 14 (2001) 3100 46 79 165 552 1540 3730 5150 10300 13700
2026-05-09 01:30 11.35 4050 14700 (2022) 14 (2001) 3100 46 79 165 552 1540 3730 5150 10300 13700
2026-05-09 00:30 11.35 4050 14700 (2022) 14 (2001) 3100 46 79 165 552 1540 3730 5150 10300 13700
2026-05-08 23:30 11.35 4050 14700 (2022) 14 (2001) 3100 46 79 165 552 1540 3730 5150 10300 13700
2026-05-08 22:30 11.36 4060 14200 (2022) 38 (2005) 3250 56 82 245 392 1790 3920 5190 11000 13600
2026-05-08 21:30 11.36 4060 14200 (2022) 38 (2005) 3250 56 82 245 392 1790 3920 5190 11000 13600
2026-05-08 20:30 11.36 4060 14200 (2022) 38 (2005) 3250 56 82 245 392 1790 3920 5190 11000 13600
2026-05-08 19:30 11.36 4060 14200 (2022) 38 (2005) 3250 56 82 245 392 1790 3920 5190 11000 13600
2026-05-08 18:30 11.35 4050 14200 (2022) 38 (2005) 3250 56 82 245 392 1790 3920 5190 11000 13600
2026-05-08 17:30 11.35 4050 14200 (2022) 38 (2005) 3250 56 82 245 392 1790 3920 5190 11000 13600
2026-05-08 16:30 11.35 4050 14200 (2022) 38 (2005) 3250 56 82 245 392 1790 3920 5190 11000 13600
2026-05-08 15:30 11.35 4050 14200 (2022) 38 (2005) 3250 56 82 245 392 1790 3920 5190 11000 13600
2026-05-08 14:30 11.36 4060 14200 (2022) 38 (2005) 3250 56 82 245 392 1790 3920 5190 11000 13600
2026-05-08 13:30 11.36 4060 14200 (2022) 38 (2005) 3250 56 82 245 392 1790 3920 5190 11000 13600
2026-05-08 12:30 11.36 4060 14200 (2022) 38 (2005) 3250 56 82 245 392 1790 3920 5190 11000 13600
2026-05-08 11:30 11.34 4040 14200 (2022) 38 (2005) 3250 56 82 245 392 1790 3920 5190 11000 13600
2026-05-08 10:30 11.33 4020 14200 (2022) 38 (2005) 3250 56 82 245 392 1790 3920 5190 11000 13600
2026-05-08 09:30 11.33 4020 14200 (2022) 38 (2005) 3250 56 82 245 392 1790 3920 5190 11000 13600
2026-05-08 08:30 11.32 4010 14200 (2022) 38 (2005) 3250 56 82 245 392 1790 3920 5190 11000 13600
2026-05-08 07:30 11.33 4020 14200 (2022) 38 (2005) 3250 56 82 245 392 1790 3920 5190 11000 13600
2026-05-08 06:30 11.34 4040 14200 (2022) 38 (2005) 3250 56 82 245 392 1790 3920 5190 11000 13600
2026-05-08 05:30 11.34 4040 14200 (2022) 38 (2005) 3250 56 82 245 392 1790 3920 5190 11000 13600
2026-05-08 04:30 11.33 4020 14200 (2022) 38 (2005) 3250 56 82 245 392 1790 3920 5190 11000 13600
2026-05-08 03:30 11.32 4010 14200 (2022) 38 (2005) 3250 56 82 245 392 1790 3920 5190 11000 13600
2026-05-08 02:30 11.33 4020 14200 (2022) 38 (2005) 3250 56 82 245 392 1790 3920 5190 11000 13600
2026-05-08 01:30 11.32 4010 14200 (2022) 38 (2005) 3250 56 82 245 392 1790 3920 5190 11000 13600
2026-05-08 00:30 11.33 4020 14200 (2022) 38 (2005) 3250 56 82 245 392 1790 3920 5190 11000 13600
2026-05-07 23:30 11.34 4040 14200 (2022) 38 (2005) 3250 56 82 245 392 1790 3920 5190 11000 13600
2026-05-07 22:30 11.34 4040 15400 (1957) 42 (2005) 3410 56 74 275 453 1710 3970 5220 11400 13600
2026-05-07 21:30 11.33 4020 15400 (1957) 42 (2005) 3410 56 74 275 453 1710 3970 5220 11400 13600
2026-05-07 20:30 11.34 4040 15400 (1957) 42 (2005) 3410 56 74 275 453 1710 3970 5220 11400 13600
2026-05-07 19:30 11.35 4050 15400 (1957) 42 (2005) 3410 56 74 275 453 1710 3970 5220 11400 13600
2026-05-07 18:30 11.35 4050 15400 (1957) 42 (2005) 3410 56 74 275 453 1710 3970 5220 11400 13600
2026-05-07 17:30 11.34 4040 15400 (1957) 42 (2005) 3410 56 74 275 453 1710 3970 5220 11400 13600
2026-05-07 16:30 11.36 4060 15400 (1957) 42 (2005) 3410 56 74 275 453 1710 3970 5220 11400 13600
2026-05-07 15:30 11.38 4090 15400 (1957) 42 (2005) 3410 56 74 275 453 1710 3970 5220 11400 13600
2026-05-07 14:30 11.42 4140 15400 (1957) 42 (2005) 3410 56 74 275 453 1710 3970 5220 11400 13600
2026-05-07 13:30 11.43 4150 15400 (1957) 42 (2005) 3410 56 74 275 453 1710 3970 5220 11400 13600
2026-05-07 12:30 11.49 4230 15400 (1957) 42 (2005) 3410 56 74 275 453 1710 3970 5220 11400 13600
2026-05-07 11:30 11.73 4560 15400 (1957) 42 (2005) 3410 56 74 275 453 1710 3970 5220 11400 13600
2026-05-07 10:30 12.58 5830 15400 (1957) 42 (2005) 3410 56 74 275 453 1710 3970 5220 11400 13600
2026-05-07 09:30 12.70 6030 15400 (1957) 42 (2005) 3410 56 74 275 453 1710 3970 5220 11400 13600
2026-05-07 08:30 12.70 6030 15400 (1957) 42 (2005) 3410 56 74 275 453 1710 3970 5220 11400 13600
2026-05-07 07:30 12.70 6030 15400 (1957) 42 (2005) 3410 56 74 275 453 1710 3970 5220 11400 13600
2026-05-07 06:30 12.71 6040 15400 (1957) 42 (2005) 3410 56 74 275 453 1710 3970 5220 11400 13600
2026-05-07 05:30 12.71 6040 15400 (1957) 42 (2005) 3410 56 74 275 453 1710 3970 5220 11400 13600
2026-05-07 04:30 12.70 6030 15400 (1957) 42 (2005) 3410 56 74 275 453 1710 3970 5220 11400 13600
2026-05-07 03:30 12.71 6040 15400 (1957) 42 (2005) 3410 56 74 275 453 1710 3970 5220 11400 13600
2026-05-07 02:30 12.70 6030 15400 (1957) 42 (2005) 3410 56 74 275 453 1710 3970 5220 11400 13600
2026-05-07 01:30 12.70 6030 15400 (1957) 42 (2005) 3410 56 74 275 453 1710 3970 5220 11400 13600
2026-05-07 00:30 12.71 6040 15400 (1957) 42 (2005) 3410 56 74 275 453 1710 3970 5220 11400 13600
2026-05-06 23:30 12.71 6040 15400 (1957) 42 (2005) 3410 56 74 275 453 1710 3970 5220 11400 13600
2026-05-06 22:30 12.71 6040 15800 (1957) 53 (1999) 3530 66 115 455 791 1940 4400 5350 11100 13700
2026-05-06 21:30 12.71 6040 15800 (1957) 53 (1999) 3530 66 115 455 791 1940 4400 5350 11100 13700
2026-05-06 20:30 12.72 6060 15800 (1957) 53 (1999) 3530 66 115 455 791 1940 4400 5350 11100 13700
2026-05-06 19:30 12.71 6040 15800 (1957) 53 (1999) 3530 66 115 455 791 1940 4400 5350 11100 13700
2026-05-06 18:30 12.71 6040 15800 (1957) 53 (1999) 3530 66 115 455 791 1940 4400 5350 11100 13700
2026-05-06 17:30 12.70 6030 15800 (1957) 53 (1999) 3530 66 115 455 791 1940 4400 5350 11100 13700
2026-05-06 16:30 12.70 6030 15800 (1957) 53 (1999) 3530 66 115 455 791 1940 4400 5350 11100 13700
2026-05-06 15:30 12.71 6040 15800 (1957) 53 (1999) 3530 66 115 455 791 1940 4400 5350 11100 13700
2026-05-06 14:30 12.71 6040 15800 (1957) 53 (1999) 3530 66 115 455 791 1940 4400 5350 11100 13700
2026-05-06 13:30 12.71 6040 15800 (1957) 53 (1999) 3530 66 115 455 791 1940 4400 5350 11100 13700
2026-05-06 12:30 12.71 6040 15800 (1957) 53 (1999) 3530 66 115 455 791 1940 4400 5350 11100 13700
2026-05-06 11:30 12.72 6060 15800 (1957) 53 (1999) 3530 66 115 455 791 1940 4400 5350 11100 13700
2026-05-06 10:30 12.71 6040 15800 (1957) 53 (1999) 3530 66 115 455 791 1940 4400 5350 11100 13700
2026-05-06 09:30 12.72 6060 15800 (1957) 53 (1999) 3530 66 115 455 791 1940 4400 5350 11100 13700
2026-05-06 08:30 12.72 6060 15800 (1957) 53 (1999) 3530 66 115 455 791 1940 4400 5350 11100 13700
2026-05-06 07:30 12.72 6060 15800 (1957) 53 (1999) 3530 66 115 455 791 1940 4400 5350 11100 13700
2026-05-06 06:30 12.72 6060 15800 (1957) 53 (1999) 3530 66 115 455 791 1940 4400 5350 11100 13700
2026-05-06 05:30 12.72 6060 15800 (1957) 53 (1999) 3530 66 115 455 791 1940 4400 5350 11100 13700
2026-05-06 04:30 12.72 6060 15800 (1957) 53 (1999) 3530 66 115 455 791 1940 4400 5350 11100 13700
2026-05-06 03:30 12.71 6040 15800 (1957) 53 (1999) 3530 66 115 455 791 1940 4400 5350 11100 13700
2026-05-06 02:30 12.73 6070 15800 (1957) 53 (1999) 3530 66 115 455 791 1940 4400 5350 11100 13700
2026-05-06 01:30 12.73 6070 15800 (1957) 53 (1999) 3530 66 115 455 791 1940 4400 5350 11100 13700
2026-05-06 00:30 12.73 6070 15800 (1957) 53 (1999) 3530 66 115 455 791 1940 4400 5350 11100 13700
2026-05-05 23:30 12.73 6070 15800 (1957) 53 (1999) 3530 66 115 455 791 1940 4400 5350 11100 13700
2026-05-05 22:30 12.72 6060 14100 (2017) 17 (2001) 3470 70 113 327 590 2040 4250 5240 10800 12800
2026-05-05 21:30 12.72 6060 14100 (2017) 17 (2001) 3470 70 113 327 590 2040 4250 5240 10800 12800
2026-05-05 20:30 12.72 6060 14100 (2017) 17 (2001) 3470 70 113 327 590 2040 4250 5240 10800 12800
2026-05-05 19:30 12.73 6070 14100 (2017) 17 (2001) 3470 70 113 327 590 2040 4250 5240 10800 12800
2026-05-05 18:30 12.73 6070 14100 (2017) 17 (2001) 3470 70 113 327 590 2040 4250 5240 10800 12800
2026-05-05 17:30 12.72 6060 14100 (2017) 17 (2001) 3470 70 113 327 590 2040 4250 5240 10800 12800
2026-05-05 16:30 12.72 6060 14100 (2017) 17 (2001) 3470 70 113 327 590 2040 4250 5240 10800 12800
2026-05-05 15:30 12.73 6070 14100 (2017) 17 (2001) 3470 70 113 327 590 2040 4250 5240 10800 12800
2026-05-05 14:30 12.73 6070 14100 (2017) 17 (2001) 3470 70 113 327 590 2040 4250 5240 10800 12800
2026-05-05 13:30 12.72 6060 14100 (2017) 17 (2001) 3470 70 113 327 590 2040 4250 5240 10800 12800
2026-05-05 12:30 12.73 6070 14100 (2017) 17 (2001) 3470 70 113 327 590 2040 4250 5240 10800 12800
2026-05-05 11:30 12.73 6070 14100 (2017) 17 (2001) 3470 70 113 327 590 2040 4250 5240 10800 12800
2026-05-05 10:30 12.72 6060 14100 (2017) 17 (2001) 3470 70 113 327 590 2040 4250 5240 10800 12800
2026-05-05 09:30 12.72 6060 14100 (2017) 17 (2001) 3470 70 113 327 590 2040 4250 5240 10800 12800
2026-05-05 08:30 12.72 6060 14100 (2017) 17 (2001) 3470 70 113 327 590 2040 4250 5240 10800 12800
2026-05-05 07:30 12.70 6030 14100 (2017) 17 (2001) 3470 70 113 327 590 2040 4250 5240 10800 12800
2026-05-05 06:30 12.66 5960 14100 (2017) 17 (2001) 3470 70 113 327 590 2040 4250 5240 10800 12800
2026-05-05 05:30 12.54 5770 14100 (2017) 17 (2001) 3470 70 113 327 590 2040 4250 5240 10800 12800
2026-05-05 04:30 12.47 5660 14100 (2017) 17 (2001) 3470 70 113 327 590 2040 4250 5240 10800 12800
2026-05-05 03:30 12.47 5660 14100 (2017) 17 (2001) 3470 70 113 327 590 2040 4250 5240 10800 12800
2026-05-05 02:30 12.48 5680 14100 (2017) 17 (2001) 3470 70 113 327 590 2040 4250 5240 10800 12800
2026-05-05 01:30 12.50 5710 14100 (2017) 17 (2001) 3470 70 113 327 590 2040 4250 5240 10800 12800
2026-05-05 00:30 12.61 5880 14100 (2017) 17 (2001) 3470 70 113 327 590 2040 4250 5240 10800 12800
2026-05-04 23:30 12.68 5990 14100 (2017) 17 (2001) 3470 70 113 327 590 2040 4250 5240 10800 12800
2026-05-04 22:30 12.67 5980 13900 (2017) 46 (1997) 3180 55 67 525 747 2050 3970 4730 9980 11700
2026-05-04 21:30 12.67 5980 13900 (2017) 46 (1997) 3180 55 67 525 747 2050 3970 4730 9980 11700
2026-05-04 20:30 12.68 5990 13900 (2017) 46 (1997) 3180 55 67 525 747 2050 3970 4730 9980 11700
2026-05-04 19:30 12.68 5990 13900 (2017) 46 (1997) 3180 55 67 525 747 2050 3970 4730 9980 11700
2026-05-04 18:30 12.68 5990 13900 (2017) 46 (1997) 3180 55 67 525 747 2050 3970 4730 9980 11700
2026-05-04 17:30 12.68 5990 13900 (2017) 46 (1997) 3180 55 67 525 747 2050 3970 4730 9980 11700
2026-05-04 16:30 12.68 5990 13900 (2017) 46 (1997) 3180 55 67 525 747 2050 3970 4730 9980 11700
2026-05-04 15:30 12.67 5980 13900 (2017) 46 (1997) 3180 55 67 525 747 2050 3970 4730 9980 11700
2026-05-04 14:30 12.65 5950 13900 (2017) 46 (1997) 3180 55 67 525 747 2050 3970 4730 9980 11700
2026-05-04 13:30 12.60 5870 13900 (2017) 46 (1997) 3180 55 67 525 747 2050 3970 4730 9980 11700
2026-05-04 12:30 12.53 5750 13900 (2017) 46 (1997) 3180 55 67 525 747 2050 3970 4730 9980 11700
2026-05-04 11:30 12.20 5240 13900 (2017) 46 (1997) 3180 55 67 525 747 2050 3970 4730 9980 11700
2026-05-04 10:30 11.30 3990 13900 (2017) 46 (1997) 3180 55 67 525 747 2050 3970 4730 9980 11700
2026-05-04 09:30 11.30 3990 13900 (2017) 46 (1997) 3180 55 67 525 747 2050 3970 4730 9980 11700
2026-05-04 08:30 11.27 3950 13900 (2017) 46 (1997) 3180 55 67 525 747 2050 3970 4730 9980 11700
2026-05-04 07:30 11.25 3920 13900 (2017) 46 (1997) 3180 55 67 525 747 2050 3970 4730 9980 11700
2026-05-04 06:30 11.25 3920 13900 (2017) 46 (1997) 3180 55 67 525 747 2050 3970 4730 9980 11700
2026-05-04 05:30 11.09 3720 13900 (2017) 46 (1997) 3180 55 67 525 747 2050 3970 4730 9980 11700
2026-05-04 04:30 11.01 3630 13900 (2017) 46 (1997) 3180 55 67 525 747 2050 3970 4730 9980 11700
2026-05-04 03:30 11.01 3630 13900 (2017) 46 (1997) 3180 55 67 525 747 2050 3970 4730 9980 11700
2026-05-04 02:30 11.00 3610 13900 (2017) 46 (1997) 3180 55 67 525 747 2050 3970 4730 9980 11700
2026-05-04 01:30 11.03 3650 13900 (2017) 46 (1997) 3180 55 67 525 747 2050 3970 4730 9980 11700
2026-05-04 00:30 11.18 3830 13900 (2017) 46 (1997) 3180 55 67 525 747 2050 3970 4730 9980 11700
2026-05-03 23:30 11.23 3900 13900 (2017) 46 (1997) 3180 55 67 525 747 2050 3970 4730 9980 11700
2026-05-03 22:30 11.24 3910 13700 (2011) 24 (1992) 3030 46 58 227 477 2000 3710 4490 9480 11200
2026-05-03 21:30 11.23 3900 13700 (2011) 24 (1992) 3030 46 58 227 477 2000 3710 4490 9480 11200
2026-05-03 20:30 11.24 3910 13700 (2011) 24 (1992) 3030 46 58 227 477 2000 3710 4490 9480 11200
2026-05-03 19:30 11.24 3910 13700 (2011) 24 (1992) 3030 46 58 227 477 2000 3710 4490 9480 11200
2026-05-03 18:30 11.25 3920 13700 (2011) 24 (1992) 3030 46 58 227 477 2000 3710 4490 9480 11200
2026-05-03 17:30 11.23 3900 13700 (2011) 24 (1992) 3030 46 58 227 477 2000 3710 4490 9480 11200
2026-05-03 16:30 11.22 3890 13700 (2011) 24 (1992) 3030 46 58 227 477 2000 3710 4490 9480 11200
2026-05-03 15:30 11.05 3670 13700 (2011) 24 (1992) 3030 46 58 227 477 2000 3710 4490 9480 11200
2026-05-03 14:30 10.11 2580 13700 (2011) 24 (1992) 3030 46 58 227 477 2000 3710 4490 9480 11200
2026-05-03 13:30 10.99 3600 13700 (2011) 24 (1992) 3030 46 58 227 477 2000 3710 4490 9480 11200
2026-05-03 12:30 11.26 3940 13700 (2011) 24 (1992) 3030 46 58 227 477 2000 3710 4490 9480 11200
2026-05-03 11:30 11.25 3920 13700 (2011) 24 (1992) 3030 46 58 227 477 2000 3710 4490 9480 11200
2026-05-03 10:30 11.25 3920 13700 (2011) 24 (1992) 3030 46 58 227 477 2000 3710 4490 9480 11200
2026-05-03 09:30 11.25 3920 13700 (2011) 24 (1992) 3030 46 58 227 477 2000 3710 4490 9480 11200
2026-05-03 08:30 11.26 3940 13700 (2011) 24 (1992) 3030 46 58 227 477 2000 3710 4490 9480 11200
2026-05-03 07:30 11.24 3910 13700 (2011) 24 (1992) 3030 46 58 227 477 2000 3710 4490 9480 11200
2026-05-03 06:30 11.26 3940 13700 (2011) 24 (1992) 3030 46 58 227 477 2000 3710 4490 9480 11200
2026-05-03 05:30 11.27 3950 13700 (2011) 24 (1992) 3030 46 58 227 477 2000 3710 4490 9480 11200
2026-05-03 04:30 11.29 3970 13700 (2011) 24 (1992) 3030 46 58 227 477 2000 3710 4490 9480 11200
2026-05-03 03:30 11.29 3970 13700 (2011) 24 (1992) 3030 46 58 227 477 2000 3710 4490 9480 11200
2026-05-03 02:30 11.29 3970 13700 (2011) 24 (1992) 3030 46 58 227 477 2000 3710 4490 9480 11200
2026-05-03 01:30 11.28 3960 13700 (2011) 24 (1992) 3030 46 58 227 477 2000 3710 4490 9480 11200
2026-05-03 00:30 11.29 3970 13700 (2011) 24 (1992) 3030 46 58 227 477 2000 3710 4490 9480 11200
2026-05-02 23:30 11.29 3970 13700 (2011) 24 (1992) 3030 46 58 227 477 2000 3710 4490 9480 11200
2026-05-02 22:30 11.28 3960 14500 (2021) 25 (2014) 3070 46 55 456 677 2150 4090 4210 6980 11300
2026-05-02 21:30 11.28 3960 14500 (2021) 25 (2014) 3070 46 55 456 677 2150 4090 4210 6980 11300
2026-05-02 20:30 11.29 3970 14500 (2021) 25 (2014) 3070 46 55 456 677 2150 4090 4210 6980 11300
2026-05-02 19:30 11.29 3970 14500 (2021) 25 (2014) 3070 46 55 456 677 2150 4090 4210 6980 11300
2026-05-02 18:30 11.28 3960 14500 (2021) 25 (2014) 3070 46 55 456 677 2150 4090 4210 6980 11300
2026-05-02 17:30 11.28 3960 14500 (2021) 25 (2014) 3070 46 55 456 677 2150 4090 4210 6980 11300
2026-05-02 16:30 11.28 3960 14500 (2021) 25 (2014) 3070 46 55 456 677 2150 4090 4210 6980 11300
2026-05-02 15:30 11.29 3970 14500 (2021) 25 (2014) 3070 46 55 456 677 2150 4090 4210 6980 11300
2026-05-02 14:30 11.28 3960 14500 (2021) 25 (2014) 3070 46 55 456 677 2150 4090 4210 6980 11300
2026-05-02 13:30 11.27 3950 14500 (2021) 25 (2014) 3070 46 55 456 677 2150 4090 4210 6980 11300
2026-05-02 12:30 11.28 3960 14500 (2021) 25 (2014) 3070 46 55 456 677 2150 4090 4210 6980 11300
2026-05-02 11:30 11.27 3950 14500 (2021) 25 (2014) 3070 46 55 456 677 2150 4090 4210 6980 11300
2026-05-02 10:30 11.26 3940 14500 (2021) 25 (2014) 3070 46 55 456 677 2150 4090 4210 6980 11300
2026-05-02 09:30 11.26 3940 14500 (2021) 25 (2014) 3070 46 55 456 677 2150 4090 4210 6980 11300
2026-05-02 08:30 11.27 3950 14500 (2021) 25 (2014) 3070 46 55 456 677 2150 4090 4210 6980 11300
2026-05-02 07:30 11.26 3940 14500 (2021) 25 (2014) 3070 46 55 456 677 2150 4090 4210 6980 11300
2026-05-02 06:30 11.26 3940 14500 (2021) 25 (2014) 3070 46 55 456 677 2150 4090 4210 6980 11300
2026-05-02 04:30 11.26 3940 14500 (2021) 25 (2014) 3070 46 55 456 677 2150 4090 4210 6980 11300
2026-05-02 03:30 11.26 3940 14500 (2021) 25 (2014) 3070 46 55 456 677 2150 4090 4210 6980 11300
2026-05-02 02:30 11.25 3920 14500 (2021) 25 (2014) 3070 46 55 456 677 2150 4090 4210 6980 11300
2026-05-02 01:30 11.26 3940 14500 (2021) 25 (2014) 3070 46 55 456 677 2150 4090 4210 6980 11300
2026-05-02 00:30 11.27 3950 14500 (2021) 25 (2014) 3070 46 55 456 677 2150 4090 4210 6980 11300
2026-05-01 23:30 11.26 3940 14500 (2021) 25 (2014) 3070 46 55 456 677 2150 4090 4210 6980 11300
2026-05-01 22:30 11.26 3940 14600 (2021) 12 (2014) 2920 48 61 165 265 2140 3760 4410 7690 11600
2026-05-01 21:30 11.27 3950 14600 (2021) 12 (2014) 2920 48 61 165 265 2140 3760 4410 7690 11600
2026-05-01 20:30 11.27 3950 14600 (2021) 12 (2014) 2920 48 61 165 265 2140 3760 4410 7690 11600
2026-05-01 19:30 11.26 3940 14600 (2021) 12 (2014) 2920 48 61 165 265 2140 3760 4410 7690 11600
2026-05-01 18:30 11.26 3940 14600 (2021) 12 (2014) 2920 48 61 165 265 2140 3760 4410 7690 11600
2026-05-01 17:30 11.25 3920 14600 (2021) 12 (2014) 2920 48 61 165 265 2140 3760 4410 7690 11600
2026-05-01 16:30 11.25 3920 14600 (2021) 12 (2014) 2920 48 61 165 265 2140 3760 4410 7690 11600
2026-05-01 15:30 11.26 3940 14600 (2021) 12 (2014) 2920 48 61 165 265 2140 3760 4410 7690 11600
2026-05-01 14:30 11.25 3920 14600 (2021) 12 (2014) 2920 48 61 165 265 2140 3760 4410 7690 11600
2026-05-01 13:30 11.26 3940 14600 (2021) 12 (2014) 2920 48 61 165 265 2140 3760 4410 7690 11600
2026-05-01 12:30 11.25 3920 14600 (2021) 12 (2014) 2920 48 61 165 265 2140 3760 4410 7690 11600
2026-05-01 11:30 11.26 3940 14600 (2021) 12 (2014) 2920 48 61 165 265 2140 3760 4410 7690 11600
2026-05-01 10:30 11.26 3940 14600 (2021) 12 (2014) 2920 48 61 165 265 2140 3760 4410 7690 11600
2026-05-01 09:30 11.26 3940 14600 (2021) 12 (2014) 2920 48 61 165 265 2140 3760 4410 7690 11600
2026-05-01 08:30 11.26 3940 14600 (2021) 12 (2014) 2920 48 61 165 265 2140 3760 4410 7690 11600
2026-05-01 07:30 11.27 3950 14600 (2021) 12 (2014) 2920 48 61 165 265 2140 3760 4410 7690 11600
2026-05-01 06:30 11.26 3940 14600 (2021) 12 (2014) 2920 48 61 165 265 2140 3760 4410 7690 11600
2026-05-01 05:30 11.27 3950 14600 (2021) 12 (2014) 2920 48 61 165 265 2140 3760 4410 7690 11600
2026-05-01 04:30 11.25 3920 14600 (2021) 12 (2014) 2920 48 61 165 265 2140 3760 4410 7690 11600
2026-05-01 03:30 11.26 3940 14600 (2021) 12 (2014) 2920 48 61 165 265 2140 3760 4410 7690 11600
2026-05-01 02:30 11.26 3940 14600 (2021) 12 (2014) 2920 48 61 165 265 2140 3760 4410 7690 11600
2026-05-01 01:30 11.26 3940 14600 (2021) 12 (2014) 2920 48 61 165 265 2140 3760 4410 7690 11600
2026-05-01 00:30 11.27 3950 14600 (2021) 12 (2014) 2920 48 61 165 265 2140 3760 4410 7690 11600
2026-04-30 23:30 11.26 3940 14600 (2021) 12 (2014) 2920 48 61 165 265 2140 3760 4410 7690 11600
2026-04-30 22:30 11.26 3940 13800 (2011) 30 (2000) 3030 52 69 344 601 2240 3910 4490 7690 11200
2026-04-30 21:30 11.26 3940 13800 (2011) 30 (2000) 3030 52 69 344 601 2240 3910 4490 7690 11200
2026-04-30 20:30 11.26 3940 13800 (2011) 30 (2000) 3030 52 69 344 601 2240 3910 4490 7690 11200
2026-04-30 19:30 11.26 3940 13800 (2011) 30 (2000) 3030 52 69 344 601 2240 3910 4490 7690 11200
2026-04-30 18:30 11.26 3940 13800 (2011) 30 (2000) 3030 52 69 344 601 2240 3910 4490 7690 11200
2026-04-30 17:30 11.27 3950 13800 (2011) 30 (2000) 3030 52 69 344 601 2240 3910 4490 7690 11200
2026-04-30 16:30 11.27 3950 13800 (2011) 30 (2000) 3030 52 69 344 601 2240 3910 4490 7690 11200
2026-04-30 15:30 11.29 3970 13800 (2011) 30 (2000) 3030 52 69 344 601 2240 3910 4490 7690 11200
2026-04-30 14:30 11.28 3960 13800 (2011) 30 (2000) 3030 52 69 344 601 2240 3910 4490 7690 11200
2026-04-30 13:30 11.29 3970 13800 (2011) 30 (2000) 3030 52 69 344 601 2240 3910 4490 7690 11200
2026-04-30 12:30 11.29 3970 13800 (2011) 30 (2000) 3030 52 69 344 601 2240 3910 4490 7690 11200
2026-04-30 11:30 11.29 3970 13800 (2011) 30 (2000) 3030 52 69 344 601 2240 3910 4490 7690 11200
2026-04-30 10:30 11.28 3960 13800 (2011) 30 (2000) 3030 52 69 344 601 2240 3910 4490 7690 11200
2026-04-30 09:30 11.28 3960 13800 (2011) 30 (2000) 3030 52 69 344 601 2240 3910 4490 7690 11200
2026-04-30 08:30 11.28 3960 13800 (2011) 30 (2000) 3030 52 69 344 601 2240 3910 4490 7690 11200
2026-04-30 07:30 11.30 3990 13800 (2011) 30 (2000) 3030 52 69 344 601 2240 3910 4490 7690 11200
2026-04-30 06:30 11.30 3990 13800 (2011) 30 (2000) 3030 52 69 344 601 2240 3910 4490 7690 11200
2026-04-30 05:30 11.31 4000 13800 (2011) 30 (2000) 3030 52 69 344 601 2240 3910 4490 7690 11200
2026-04-30 04:30 11.31 4000 13800 (2011) 30 (2000) 3030 52 69 344 601 2240 3910 4490 7690 11200
2026-04-30 03:30 11.31 4000 13800 (2011) 30 (2000) 3030 52 69 344 601 2240 3910 4490 7690 11200
2026-04-30 02:30 11.32 4010 13800 (2011) 30 (2000) 3030 52 69 344 601 2240 3910 4490 7690 11200
2026-04-30 01:30 11.32 4010 13800 (2011) 30 (2000) 3030 52 69 344 601 2240 3910 4490 7690 11200
2026-04-30 00:30 11.32 4010 13800 (2011) 30 (2000) 3030 52 69 344 601 2240 3910 4490 7690 11200
2026-04-29 23:30 11.32 4010 13800 (2011) 30 (2000) 3030 52 69 344 601 2240 3910 4490 7690 11200
2026-04-29 22:30 11.32 4010 14000 (2011) 11 (2001) 2840 52 84 337 477 2030 4300 4850 7110 10500
2026-04-29 21:30 11.31 4000 14000 (2011) 11 (2001) 2840 52 84 337 477 2030 4300 4850 7110 10500
2026-04-29 20:30 11.32 4010 14000 (2011) 11 (2001) 2840 52 84 337 477 2030 4300 4850 7110 10500
2026-04-29 19:30 11.32 4010 14000 (2011) 11 (2001) 2840 52 84 337 477 2030 4300 4850 7110 10500
2026-04-29 18:30 11.30 3990 14000 (2011) 11 (2001) 2840 52 84 337 477 2030 4300 4850 7110 10500
2026-04-29 17:30 11.30 3990 14000 (2011) 11 (2001) 2840 52 84 337 477 2030 4300 4850 7110 10500
2026-04-29 16:30 11.30 3990 14000 (2011) 11 (2001) 2840 52 84 337 477 2030 4300 4850 7110 10500
2026-04-29 15:30 11.31 4000 14000 (2011) 11 (2001) 2840 52 84 337 477 2030 4300 4850 7110 10500
2026-04-29 14:30 11.31 4000 14000 (2011) 11 (2001) 2840 52 84 337 477 2030 4300 4850 7110 10500
2026-04-29 13:30 11.33 4020 14000 (2011) 11 (2001) 2840 52 84 337 477 2030 4300 4850 7110 10500
2026-04-29 12:30 11.31 4000 14000 (2011) 11 (2001) 2840 52 84 337 477 2030 4300 4850 7110 10500
2026-04-29 11:30 11.29 3970 14000 (2011) 11 (2001) 2840 52 84 337 477 2030 4300 4850 7110 10500
2026-04-29 10:30 11.27 3950 14000 (2011) 11 (2001) 2840 52 84 337 477 2030 4300 4850 7110 10500
2026-04-29 09:30 11.29 3970 14000 (2011) 11 (2001) 2840 52 84 337 477 2030 4300 4850 7110 10500
2026-04-29 08:30 11.27 3950 14000 (2011) 11 (2001) 2840 52 84 337 477 2030 4300 4850 7110 10500
2026-04-29 07:30 11.28 3960 14000 (2011) 11 (2001) 2840 52 84 337 477 2030 4300 4850 7110 10500
2026-04-29 06:30 11.29 3970 14000 (2011) 11 (2001) 2840 52 84 337 477 2030 4300 4850 7110 10500
2026-04-29 05:30 11.28 3960 14000 (2011) 11 (2001) 2840 52 84 337 477 2030 4300 4850 7110 10500
2026-04-29 04:30 11.28 3960 14000 (2011) 11 (2001) 2840 52 84 337 477 2030 4300 4850 7110 10500
2026-04-29 03:30 11.24 3910 14000 (2011) 11 (2001) 2840 52 84 337 477 2030 4300 4850 7110 10500
2026-04-29 02:30 11.13 3770 14000 (2011) 11 (2001) 2840 52 84 337 477 2030 4300 4850 7110 10500
2026-04-29 01:30 10.23 2720 14000 (2011) 11 (2001) 2840 52 84 337 477 2030 4300 4850 7110 10500
2026-04-29 00:30 10.02 2480 14000 (2011) 11 (2001) 2840 52 84 337 477 2030 4300 4850 7110 10500
2026-04-28 23:30 10.02 2480 14000 (2011) 11 (2001) 2840 52 84 337 477 2030 4300 4850 7110 10500
2026-04-28 22:30 10.02 2480 13700 (2011) 19 (2001) 2880 49 85 296 533 2090 4100 4820 7200 10500
2026-04-28 21:30 10.05 2520 13700 (2011) 19 (2001) 2880 49 85 296 533 2090 4100 4820 7200 10500
2026-04-28 20:30 10.24 2730 13700 (2011) 19 (2001) 2880 49 85 296 533 2090 4100 4820 7200 10500
2026-04-28 19:30 11.15 3800 13700 (2011) 19 (2001) 2880 49 85 296 533 2090 4100 4820 7200 10500
2026-04-28 18:30 11.29 3970 13700 (2011) 19 (2001) 2880 49 85 296 533 2090 4100 4820 7200 10500
2026-04-28 17:30 11.29 3970 13700 (2011) 19 (2001) 2880 49 85 296 533 2090 4100 4820 7200 10500
2026-04-28 16:30 11.29 3970 13700 (2011) 19 (2001) 2880 49 85 296 533 2090 4100 4820 7200 10500
2026-04-28 15:30 11.29 3970 13700 (2011) 19 (2001) 2880 49 85 296 533 2090 4100 4820 7200 10500
2026-04-28 14:30 11.29 3970 13700 (2011) 19 (2001) 2880 49 85 296 533 2090 4100 4820 7200 10500
2026-04-28 13:30 11.28 3960 13700 (2011) 19 (2001) 2880 49 85 296 533 2090 4100 4820 7200 10500
2026-04-28 12:30 11.28 3960 13700 (2011) 19 (2001) 2880 49 85 296 533 2090 4100 4820 7200 10500
2026-04-28 11:30 11.26 3940 13700 (2011) 19 (2001) 2880 49 85 296 533 2090 4100 4820 7200 10500
2026-04-28 10:30 11.27 3950 13700 (2011) 19 (2001) 2880 49 85 296 533 2090 4100 4820 7200 10500
2026-04-28 09:30 11.26 3940 13700 (2011) 19 (2001) 2880 49 85 296 533 2090 4100 4820 7200 10500
2026-04-28 08:30 11.20 3860 13700 (2011) 19 (2001) 2880 49 85 296 533 2090 4100 4820 7200 10500
2026-04-28 07:30 10.90 3490 13700 (2011) 19 (2001) 2880 49 85 296 533 2090 4100 4820 7200 10500
2026-04-28 06:30 6.98 177 13700 (2011) 19 (2001) 2880 49 85 296 533 2090 4100 4820 7200 10500
2026-04-28 05:30 6.84 137 13700 (2011) 19 (2001) 2880 49 85 296 533 2090 4100 4820 7200 10500
2026-04-28 04:30 6.93 162 13700 (2011) 19 (2001) 2880 49 85 296 533 2090 4100 4820 7200 10500
2026-04-28 02:30 7.43 352 13700 (2011) 19 (2001) 2880 49 85 296 533 2090 4100 4820 7200 10500
2026-04-28 01:30 8.51 1050 13700 (2011) 19 (2001) 2880 49 85 296 533 2090 4100 4820 7200 10500
2026-04-28 00:30 10.75 3310 13700 (2011) 19 (2001) 2880 49 85 296 533 2090 4100 4820 7200 10500
2026-04-27 23:30 11.30 3990 13700 (2011) 19 (2001) 2880 49 85 296 533 2090 4100 4820 7200 10500
2026-04-27 22:30 11.28 3960 13900 (2011) 34 (2006) 2810 48 78 251 469 2050 4060 4510 7300 10600
2026-04-27 21:30 11.27 3950 13900 (2011) 34 (2006) 2810 48 78 251 469 2050 4060 4510 7300 10600
2026-04-27 20:30 11.28 3960 13900 (2011) 34 (2006) 2810 48 78 251 469 2050 4060 4510 7300 10600
2026-04-27 19:30 11.28 3960 13900 (2011) 34 (2006) 2810 48 78 251 469 2050 4060 4510 7300 10600
2026-04-27 18:30 11.27 3950 13900 (2011) 34 (2006) 2810 48 78 251 469 2050 4060 4510 7300 10600
2026-04-27 17:30 11.23 3900 13900 (2011) 34 (2006) 2810 48 78 251 469 2050 4060 4510 7300 10600
2026-04-27 16:30 11.09 3720 13900 (2011) 34 (2006) 2810 48 78 251 469 2050 4060 4510 7300 10600
2026-04-27 15:30 9.83 2280 13900 (2011) 34 (2006) 2810 48 78 251 469 2050 4060 4510 7300 10600
2026-04-27 14:30 6.86 142 13900 (2011) 34 (2006) 2810 48 78 251 469 2050 4060 4510 7300 10600
2026-04-27 13:30 6.91 156 13900 (2011) 34 (2006) 2810 48 78 251 469 2050 4060 4510 7300 10600
2026-04-27 12:30 7.06 202 13900 (2011) 34 (2006) 2810 48 78 251 469 2050 4060 4510 7300 10600
2026-04-27 11:30 7.41 342 13900 (2011) 34 (2006) 2810 48 78 251 469 2050 4060 4510 7300 10600
2026-04-27 10:30 8.47 1020 13900 (2011) 34 (2006) 2810 48 78 251 469 2050 4060 4510 7300 10600
2026-04-27 09:30 10.71 3270 13900 (2011) 34 (2006) 2810 48 78 251 469 2050 4060 4510 7300 10600
2026-04-27 08:30 11.19 3850 13900 (2011) 34 (2006) 2810 48 78 251 469 2050 4060 4510 7300 10600
2026-04-27 07:30 10.88 3470 13900 (2011) 34 (2006) 2810 48 78 251 469 2050 4060 4510 7300 10600
2026-04-27 06:30 6.74 113 13900 (2011) 34 (2006) 2810 48 78 251 469 2050 4060 4510 7300 10600
2026-04-27 05:30 6.68 100 13900 (2011) 34 (2006) 2810 48 78 251 469 2050 4060 4510 7300 10600
2026-04-27 04:30 6.72 108 13900 (2011) 34 (2006) 2810 48 78 251 469 2050 4060 4510 7300 10600
2026-04-27 03:30 6.79 125 13900 (2011) 34 (2006) 2810 48 78 251 469 2050 4060 4510 7300 10600
2026-04-27 02:30 6.90 153 13900 (2011) 34 (2006) 2810 48 78 251 469 2050 4060 4510 7300 10600
2026-04-27 01:30 7.08 209 13900 (2011) 34 (2006) 2810 48 78 251 469 2050 4060 4510 7300 10600
2026-04-27 00:30 7.50 386 13900 (2011) 34 (2006) 2810 48 78 251 469 2050 4060 4510 7300 10600
2026-04-26 23:30 8.76 1260 13900 (2011) 34 (2006) 2810 48 78 251 469 2050 4060 4510 7300 10600
2026-04-26 22:30 11.08 3710 11900 (2025) 29 (2012) 2680 53 81 354 551 1720 3930 4200 7290 10100
2026-04-26 21:30 11.31 4000 11900 (2025) 29 (2012) 2680 53 81 354 551 1720 3930 4200 7290 10100
2026-04-26 20:30 11.32 4010 11900 (2025) 29 (2012) 2680 53 81 354 551 1720 3930 4200 7290 10100
2026-04-26 19:30 11.33 4020 11900 (2025) 29 (2012) 2680 53 81 354 551 1720 3930 4200 7290 10100
2026-04-26 18:30 11.33 4020 11900 (2025) 29 (2012) 2680 53 81 354 551 1720 3930 4200 7290 10100
2026-04-26 17:30 11.31 4000 11900 (2025) 29 (2012) 2680 53 81 354 551 1720 3930 4200 7290 10100
2026-04-26 16:30 11.32 4010 11900 (2025) 29 (2012) 2680 53 81 354 551 1720 3930 4200 7290 10100
2026-04-26 15:30 11.32 4010 11900 (2025) 29 (2012) 2680 53 81 354 551 1720 3930 4200 7290 10100
2026-04-26 14:30 11.32 4010 11900 (2025) 29 (2012) 2680 53 81 354 551 1720 3930 4200 7290 10100
2026-04-26 13:30 11.31 4000 11900 (2025) 29 (2012) 2680 53 81 354 551 1720 3930 4200 7290 10100
2026-04-26 12:30 11.31 4000 11900 (2025) 29 (2012) 2680 53 81 354 551 1720 3930 4200 7290 10100
2026-04-26 11:30 11.30 3990 11900 (2025) 29 (2012) 2680 53 81 354 551 1720 3930 4200 7290 10100
2026-04-26 10:30 11.30 3990 11900 (2025) 29 (2012) 2680 53 81 354 551 1720 3930 4200 7290 10100
2026-04-26 09:30 11.28 3960 11900 (2025) 29 (2012) 2680 53 81 354 551 1720 3930 4200 7290 10100
2026-04-26 08:30 11.22 3890 11900 (2025) 29 (2012) 2680 53 81 354 551 1720 3930 4200 7290 10100
2026-04-26 07:30 10.84 3420 11900 (2025) 29 (2012) 2680 53 81 354 551 1720 3930 4200 7290 10100
2026-04-26 06:30 6.76 117 11900 (2025) 29 (2012) 2680 53 81 354 551 1720 3930 4200 7290 10100
2026-04-26 05:30 6.78 122 11900 (2025) 29 (2012) 2680 53 81 354 551 1720 3930 4200 7290 10100
2026-04-26 04:30 6.83 135 11900 (2025) 29 (2012) 2680 53 81 354 551 1720 3930 4200 7290 10100
2026-04-26 03:30 6.91 156 11900 (2025) 29 (2012) 2680 53 81 354 551 1720 3930 4200 7290 10100
2026-04-26 02:30 7.00 183 11900 (2025) 29 (2012) 2680 53 81 354 551 1720 3930 4200 7290 10100
2026-04-26 01:30 7.14 230 11900 (2025) 29 (2012) 2680 53 81 354 551 1720 3930 4200 7290 10100
2026-04-26 00:30 7.44 356 11900 (2025) 29 (2012) 2680 53 81 354 551 1720 3930 4200 7290 10100
2026-04-25 23:30 8.52 1060 11900 (2025) 29 (2012) 2680 53 81 354 551 1720 3930 4200 7290 10100
2026-04-25 22:30 10.80 3370 11900 (2025) 30 (2017) 2750 48 62 476 630 1990 3900 4230 6530 10300
2026-04-25 21:30 11.34 4040 11900 (2025) 30 (2017) 2750 48 62 476 630 1990 3900 4230 6530 10300
2026-04-25 20:30 11.34 4040 11900 (2025) 30 (2017) 2750 48 62 476 630 1990 3900 4230 6530 10300
2026-04-25 19:30 11.36 4060 11900 (2025) 30 (2017) 2750 48 62 476 630 1990 3900 4230 6530 10300
2026-04-25 18:30 11.33 4020 11900 (2025) 30 (2017) 2750 48 62 476 630 1990 3900 4230 6530 10300
2026-04-25 17:30 11.33 4020 11900 (2025) 30 (2017) 2750 48 62 476 630 1990 3900 4230 6530 10300
2026-04-25 16:30 11.32 4010 11900 (2025) 30 (2017) 2750 48 62 476 630 1990 3900 4230 6530 10300
2026-04-25 15:30 11.33 4020 11900 (2025) 30 (2017) 2750 48 62 476 630 1990 3900 4230 6530 10300
2026-04-25 14:30 11.33 4020 11900 (2025) 30 (2017) 2750 48 62 476 630 1990 3900 4230 6530 10300
2026-04-25 13:30 11.33 4020 11900 (2025) 30 (2017) 2750 48 62 476 630 1990 3900 4230 6530 10300
2026-04-25 12:30 11.32 4010 11900 (2025) 30 (2017) 2750 48 62 476 630 1990 3900 4230 6530 10300
2026-04-25 11:30 11.31 4000 11900 (2025) 30 (2017) 2750 48 62 476 630 1990 3900 4230 6530 10300
2026-04-25 10:30 11.30 3990 11900 (2025) 30 (2017) 2750 48 62 476 630 1990 3900 4230 6530 10300
2026-04-25 09:30 11.29 3970 11900 (2025) 30 (2017) 2750 48 62 476 630 1990 3900 4230 6530 10300
2026-04-25 08:30 11.24 3910 11900 (2025) 30 (2017) 2750 48 62 476 630 1990 3900 4230 6530 10300
2026-04-25 07:30 10.96 3560 11900 (2025) 30 (2017) 2750 48 62 476 630 1990 3900 4230 6530 10300
2026-04-25 06:30 6.93 162 11900 (2025) 30 (2017) 2750 48 62 476 630 1990 3900 4230 6530 10300
2026-04-25 05:30 6.78 122 11900 (2025) 30 (2017) 2750 48 62 476 630 1990 3900 4230 6530 10300
2026-04-25 04:30 6.83 135 11900 (2025) 30 (2017) 2750 48 62 476 630 1990 3900 4230 6530 10300
2026-04-25 03:30 6.90 153 11900 (2025) 30 (2017) 2750 48 62 476 630 1990 3900 4230 6530 10300
2026-04-25 01:30 7.14 230 11900 (2025) 30 (2017) 2750 48 62 476 630 1990 3900 4230 6530 10300
2026-04-25 00:30 7.47 371 11900 (2025) 30 (2017) 2750 48 62 476 630 1990 3900 4230 6530 10300
2026-04-24 23:30 8.53 1070 11900 (2025) 30 (2017) 2750 48 62 476 630 1990 3900 4230 6530 10300
2026-04-24 22:30 10.80 3370 13400 (2025) 22 (2001) 2720 41 62 134 324 1910 3960 4420 6350 9260
2026-04-24 21:30 11.37 4080 13400 (2025) 22 (2001) 2720 41 62 134 324 1910 3960 4420 6350 9260
2026-04-24 20:30 11.38 4090 13400 (2025) 22 (2001) 2720 41 62 134 324 1910 3960 4420 6350 9260
2026-04-24 19:30 11.40 4110 13400 (2025) 22 (2001) 2720 41 62 134 324 1910 3960 4420 6350 9260
2026-04-24 18:30 11.40 4110 13400 (2025) 22 (2001) 2720 41 62 134 324 1910 3960 4420 6350 9260
2026-04-24 17:30 11.40 4110 13400 (2025) 22 (2001) 2720 41 62 134 324 1910 3960 4420 6350 9260
2026-04-24 16:30 11.41 4130 13400 (2025) 22 (2001) 2720 41 62 134 324 1910 3960 4420 6350 9260
2026-04-24 15:30 11.43 4150 13400 (2025) 22 (2001) 2720 41 62 134 324 1910 3960 4420 6350 9260
2026-04-24 14:30 11.45 4180 13400 (2025) 22 (2001) 2720 41 62 134 324 1910 3960 4420 6350 9260
2026-04-24 13:30 11.46 4190 13400 (2025) 22 (2001) 2720 41 62 134 324 1910 3960 4420 6350 9260
2026-04-24 12:30 11.45 4180 13400 (2025) 22 (2001) 2720 41 62 134 324 1910 3960 4420 6350 9260
2026-04-24 11:30 11.43 4150 13400 (2025) 22 (2001) 2720 41 62 134 324 1910 3960 4420 6350 9260
2026-04-24 10:30 11.38 4090 13400 (2025) 22 (2001) 2720 41 62 134 324 1910 3960 4420 6350 9260
2026-04-24 09:30 11.34 4040 13400 (2025) 22 (2001) 2720 41 62 134 324 1910 3960 4420 6350 9260
2026-04-24 08:30 11.29 3970 13400 (2025) 22 (2001) 2720 41 62 134 324 1910 3960 4420 6350 9260
2026-04-24 07:30 11.01 3630 13400 (2025) 22 (2001) 2720 41 62 134 324 1910 3960 4420 6350 9260
2026-04-24 06:30 6.83 135 13400 (2025) 22 (2001) 2720 41 62 134 324 1910 3960 4420 6350 9260
2026-04-24 05:30 6.65 94 13400 (2025) 22 (2001) 2720 41 62 134 324 1910 3960 4420 6350 9260
2026-04-24 04:30 6.60 84 13400 (2025) 22 (2001) 2720 41 62 134 324 1910 3960 4420 6350 9260
2026-04-24 03:30 6.59 82 13400 (2025) 22 (2001) 2720 41 62 134 324 1910 3960 4420 6350 9260
2026-04-24 02:30 6.67 98 13400 (2025) 22 (2001) 2720 41 62 134 324 1910 3960 4420 6350 9260
2026-04-24 01:30 6.79 125 13400 (2025) 22 (2001) 2720 41 62 134 324 1910 3960 4420 6350 9260
2026-04-24 00:30 6.97 174 13400 (2025) 22 (2001) 2720 41 62 134 324 1910 3960 4420 6350 9260
2026-04-23 23:30 7.37 324 13400 (2025) 22 (2001) 2720 41 62 134 324 1910 3960 4420 6350 9260
2026-04-23 22:30 8.48 1030 14200 (2025) 31 (2006) 2610 59 72 446 607 1930 4060 4290 5220 8220
2026-04-23 21:30 10.78 3350 14200 (2025) 31 (2006) 2610 59 72 446 607 1930 4060 4290 5220 8220
2026-04-23 20:30 11.36 4060 14200 (2025) 31 (2006) 2610 59 72 446 607 1930 4060 4290 5220 8220
2026-04-23 19:30 11.36 4060 14200 (2025) 31 (2006) 2610 59 72 446 607 1930 4060 4290 5220 8220
2026-04-23 18:30 11.36 4060 14200 (2025) 31 (2006) 2610 59 72 446 607 1930 4060 4290 5220 8220
2026-04-23 17:30 11.35 4050 14200 (2025) 31 (2006) 2610 59 72 446 607 1930 4060 4290 5220 8220
2026-04-23 16:30 11.34 4040 14200 (2025) 31 (2006) 2610 59 72 446 607 1930 4060 4290 5220 8220
2026-04-23 15:30 11.34 4040 14200 (2025) 31 (2006) 2610 59 72 446 607 1930 4060 4290 5220 8220
2026-04-23 14:30 11.34 4040 14200 (2025) 31 (2006) 2610 59 72 446 607 1930 4060 4290 5220 8220
2026-04-23 13:30 11.37 4080 14200 (2025) 31 (2006) 2610 59 72 446 607 1930 4060 4290 5220 8220
2026-04-23 12:30 11.41 4130 14200 (2025) 31 (2006) 2610 59 72 446 607 1930 4060 4290 5220 8220
2026-04-23 11:30 11.39 4100 14200 (2025) 31 (2006) 2610 59 72 446 607 1930 4060 4290 5220 8220
2026-04-23 10:30 11.37 4080 14200 (2025) 31 (2006) 2610 59 72 446 607 1930 4060 4290 5220 8220
2026-04-23 09:30 11.37 4080 14200 (2025) 31 (2006) 2610 59 72 446 607 1930 4060 4290 5220 8220
2026-04-23 08:30 11.34 4040 14200 (2025) 31 (2006) 2610 59 72 446 607 1930 4060 4290 5220 8220
2026-04-23 07:30 11.27 3950 14200 (2025) 31 (2006) 2610 59 72 446 607 1930 4060 4290 5220 8220
2026-04-23 06:30 10.93 3530 14200 (2025) 31 (2006) 2610 59 72 446 607 1930 4060 4290 5220 8220
2026-04-23 05:30 6.82 132 14200 (2025) 31 (2006) 2610 59 72 446 607 1930 4060 4290 5220 8220
2026-04-23 04:30 6.71 106 14200 (2025) 31 (2006) 2610 59 72 446 607 1930 4060 4290 5220 8220
2026-04-23 03:30 6.77 120 14200 (2025) 31 (2006) 2610 59 72 446 607 1930 4060 4290 5220 8220
2026-04-23 02:30 6.87 145 14200 (2025) 31 (2006) 2610 59 72 446 607 1930 4060 4290 5220 8220
2026-04-23 01:30 7.03 192 14200 (2025) 31 (2006) 2610 59 72 446 607 1930 4060 4290 5220 8220
2026-04-23 00:30 7.40 337 14200 (2025) 31 (2006) 2610 59 72 446 607 1930 4060 4290 5220 8220
2026-04-22 23:30 8.50 1050 14200 (2025) 31 (2006) 2610 59 72 446 607 1930 4060 4290 5220 8220
2026-04-22 22:30 10.79 3360 14300 (2025) 31 (2006) 2720 55 89 478 778 2090 3880 4150 5710 8660
2026-04-22 21:30 11.36 4060 14300 (2025) 31 (2006) 2720 55 89 478 778 2090 3880 4150 5710 8660
2026-04-22 20:30 11.37 4080 14300 (2025) 31 (2006) 2720 55 89 478 778 2090 3880 4150 5710 8660
2026-04-22 19:30 11.37 4080 14300 (2025) 31 (2006) 2720 55 89 478 778 2090 3880 4150 5710 8660
2026-04-22 18:30 11.37 4080 14300 (2025) 31 (2006) 2720 55 89 478 778 2090 3880 4150 5710 8660
2026-04-22 17:30 11.37 4080 14300 (2025) 31 (2006) 2720 55 89 478 778 2090 3880 4150 5710 8660
2026-04-22 16:30 11.36 4060 14300 (2025) 31 (2006) 2720 55 89 478 778 2090 3880 4150 5710 8660
2026-04-22 15:30 11.36 4060 14300 (2025) 31 (2006) 2720 55 89 478 778 2090 3880 4150 5710 8660
2026-04-22 14:30 11.37 4080 14300 (2025) 31 (2006) 2720 55 89 478 778 2090 3880 4150 5710 8660
2026-04-22 12:30 11.36 4060 14300 (2025) 31 (2006) 2720 55 89 478 778 2090 3880 4150 5710 8660
2026-04-22 11:30 11.34 4040 14300 (2025) 31 (2006) 2720 55 89 478 778 2090 3880 4150 5710 8660
2026-04-22 10:30 11.29 3970 14300 (2025) 31 (2006) 2720 55 89 478 778 2090 3880 4150 5710 8660
2026-04-22 09:30 11.29 3970 14300 (2025) 31 (2006) 2720 55 89 478 778 2090 3880 4150 5710 8660
2026-04-22 08:30 11.23 3900 14300 (2025) 31 (2006) 2720 55 89 478 778 2090 3880 4150 5710 8660
2026-04-22 07:30 10.92 3520 14300 (2025) 31 (2006) 2720 55 89 478 778 2090 3880 4150 5710 8660
2026-04-22 06:30 6.86 142 14300 (2025) 31 (2006) 2720 55 89 478 778 2090 3880 4150 5710 8660
2026-04-22 05:30 6.71 106 14300 (2025) 31 (2006) 2720 55 89 478 778 2090 3880 4150 5710 8660
2026-04-22 04:30 6.75 115 14300 (2025) 31 (2006) 2720 55 89 478 778 2090 3880 4150 5710 8660
2026-04-22 03:30 6.81 130 14300 (2025) 31 (2006) 2720 55 89 478 778 2090 3880 4150 5710 8660
2026-04-22 02:30 6.90 153 14300 (2025) 31 (2006) 2720 55 89 478 778 2090 3880 4150 5710 8660
2026-04-22 01:30 7.06 202 14300 (2025) 31 (2006) 2720 55 89 478 778 2090 3880 4150 5710 8660
2026-04-22 00:30 7.42 347 14300 (2025) 31 (2006) 2720 55 89 478 778 2090 3880 4150 5710 8660
2026-04-21 23:30 8.51 1050 14300 (2025) 31 (2006) 2720 55 89 478 778 2090 3880 4150 5710 8660
2026-04-21 22:30 10.79 3360 13400 (2013) 27 (2011) 2700 37 61 448 594 2020 3850 4190 5990 6560
2026-04-21 21:30 11.34 4040 13400 (2013) 27 (2011) 2700 37 61 448 594 2020 3850 4190 5990 6560
2026-04-21 20:30 11.35 4050 13400 (2013) 27 (2011) 2700 37 61 448 594 2020 3850 4190 5990 6560
2026-04-21 19:30 11.36 4060 13400 (2013) 27 (2011) 2700 37 61 448 594 2020 3850 4190 5990 6560
2026-04-21 18:30 11.36 4060 13400 (2013) 27 (2011) 2700 37 61 448 594 2020 3850 4190 5990 6560
2026-04-21 17:30 11.34 4040 13400 (2013) 27 (2011) 2700 37 61 448 594 2020 3850 4190 5990 6560
2026-04-21 16:30 11.35 4050 13400 (2013) 27 (2011) 2700 37 61 448 594 2020 3850 4190 5990 6560
2026-04-21 15:30 11.35 4050 13400 (2013) 27 (2011) 2700 37 61 448 594 2020 3850 4190 5990 6560
2026-04-21 14:30 11.34 4040 13400 (2013) 27 (2011) 2700 37 61 448 594 2020 3850 4190 5990 6560
2026-04-21 13:30 11.34 4040 13400 (2013) 27 (2011) 2700 37 61 448 594 2020 3850 4190 5990 6560
2026-04-21 12:30 11.34 4040 13400 (2013) 27 (2011) 2700 37 61 448 594 2020 3850 4190 5990 6560
2026-04-21 11:30 11.33 4020 13400 (2013) 27 (2011) 2700 37 61 448 594 2020 3850 4190 5990 6560
2026-04-21 10:30 11.31 4000 13400 (2013) 27 (2011) 2700 37 61 448 594 2020 3850 4190 5990 6560
2026-04-21 09:30 11.30 3990 13400 (2013) 27 (2011) 2700 37 61 448 594 2020 3850 4190 5990 6560
2026-04-21 08:30 11.25 3920 13400 (2013) 27 (2011) 2700 37 61 448 594 2020 3850 4190 5990 6560
2026-04-21 07:30 10.94 3540 13400 (2013) 27 (2011) 2700 37 61 448 594 2020 3850 4190 5990 6560
2026-04-21 06:30 6.86 142 13400 (2013) 27 (2011) 2700 37 61 448 594 2020 3850 4190 5990 6560
2026-04-21 05:30 6.71 106 13400 (2013) 27 (2011) 2700 37 61 448 594 2020 3850 4190 5990 6560
2026-04-21 04:30 6.75 115 13400 (2013) 27 (2011) 2700 37 61 448 594 2020 3850 4190 5990 6560
2026-04-21 03:30 6.81 130 13400 (2013) 27 (2011) 2700 37 61 448 594 2020 3850 4190 5990 6560
2026-04-21 02:30 6.90 153 13400 (2013) 27 (2011) 2700 37 61 448 594 2020 3850 4190 5990 6560
2026-04-21 01:30 7.06 202 13400 (2013) 27 (2011) 2700 37 61 448 594 2020 3850 4190 5990 6560
2026-04-21 00:30 7.42 347 13400 (2013) 27 (2011) 2700 37 61 448 594 2020 3850 4190 5990 6560
2026-04-20 23:30 8.51 1050 13400 (2013) 27 (2011) 2700 37 61 448 594 2020 3850 4190 5990 6560
2026-04-20 22:30 10.78 3350 13500 (2013) 31 (2006) 2660 45 67 410 822 2020 3750 3930 6040 7590
2026-04-20 21:30 11.33 4020 13500 (2013) 31 (2006) 2660 45 67 410 822 2020 3750 3930 6040 7590
2026-04-20 20:30 11.33 4020 13500 (2013) 31 (2006) 2660 45 67 410 822 2020 3750 3930 6040 7590
2026-04-20 19:30 11.33 4020 13500 (2013) 31 (2006) 2660 45 67 410 822 2020 3750 3930 6040 7590
2026-04-20 18:30 11.33 4020 13500 (2013) 31 (2006) 2660 45 67 410 822 2020 3750 3930 6040 7590
2026-04-20 17:30 11.32 4010 13500 (2013) 31 (2006) 2660 45 67 410 822 2020 3750 3930 6040 7590
2026-04-20 16:30 11.32 4010 13500 (2013) 31 (2006) 2660 45 67 410 822 2020 3750 3930 6040 7590
2026-04-20 15:30 11.32 4010 13500 (2013) 31 (2006) 2660 45 67 410 822 2020 3750 3930 6040 7590
2026-04-20 14:30 11.32 4010 13500 (2013) 31 (2006) 2660 45 67 410 822 2020 3750 3930 6040 7590
2026-04-20 13:30 11.32 4010 13500 (2013) 31 (2006) 2660 45 67 410 822 2020 3750 3930 6040 7590
2026-04-20 12:30 11.32 4010 13500 (2013) 31 (2006) 2660 45 67 410 822 2020 3750 3930 6040 7590
2026-04-20 11:30 11.30 3990 13500 (2013) 31 (2006) 2660 45 67 410 822 2020 3750 3930 6040 7590
2026-04-20 10:30 11.30 3990 13500 (2013) 31 (2006) 2660 45 67 410 822 2020 3750 3930 6040 7590
2026-04-20 09:30 11.28 3960 13500 (2013) 31 (2006) 2660 45 67 410 822 2020 3750 3930 6040 7590
2026-04-20 08:30 11.21 3870 13500 (2013) 31 (2006) 2660 45 67 410 822 2020 3750 3930 6040 7590
2026-04-20 07:30 10.88 3470 13500 (2013) 31 (2006) 2660 45 67 410 822 2020 3750 3930 6040 7590
2026-04-20 06:30 6.56 77 13500 (2013) 31 (2006) 2660 45 67 410 822 2020 3750 3930 6040 7590
2026-04-20 05:30 6.55 75 13500 (2013) 31 (2006) 2660 45 67 410 822 2020 3750 3930 6040 7590
2026-04-20 04:30 6.60 84 13500 (2013) 31 (2006) 2660 45 67 410 822 2020 3750 3930 6040 7590
2026-04-20 03:30 6.68 100 13500 (2013) 31 (2006) 2660 45 67 410 822 2020 3750 3930 6040 7590
2026-04-20 02:30 6.79 125 13500 (2013) 31 (2006) 2660 45 67 410 822 2020 3750 3930 6040 7590
2026-04-20 01:30 6.98 177 13500 (2013) 31 (2006) 2660 45 67 410 822 2020 3750 3930 6040 7590
2026-04-20 00:30 7.37 324 13500 (2013) 31 (2006) 2660 45 67 410 822 2020 3750 3930 6040 7590
2026-04-19 23:30 8.48 1030 13500 (2013) 31 (2006) 2660 45 67 410 822 2020 3750 3930 6040 7590
2026-04-19 22:30 10.78 3350 9350 (1990) 32 (1992) 2640 50 86 612 733 2090 3680 3890 6180 7770
2026-04-19 21:30 11.34 4040 9350 (1990) 32 (1992) 2640 50 86 612 733 2090 3680 3890 6180 7770
2026-04-19 20:30 11.36 4060 9350 (1990) 32 (1992) 2640 50 86 612 733 2090 3680 3890 6180 7770
2026-04-19 19:30 11.37 4080 9350 (1990) 32 (1992) 2640 50 86 612 733 2090 3680 3890 6180 7770
2026-04-19 18:30 11.34 4040 9350 (1990) 32 (1992) 2640 50 86 612 733 2090 3680 3890 6180 7770
2026-04-19 17:30 11.33 4020 9350 (1990) 32 (1992) 2640 50 86 612 733 2090 3680 3890 6180 7770
2026-04-19 16:30 11.32 4010 9350 (1990) 32 (1992) 2640 50 86 612 733 2090 3680 3890 6180 7770
2026-04-19 15:30 11.31 4000 9350 (1990) 32 (1992) 2640 50 86 612 733 2090 3680 3890 6180 7770
2026-04-19 14:30 11.31 4000 9350 (1990) 32 (1992) 2640 50 86 612 733 2090 3680 3890 6180 7770
2026-04-19 13:30 11.31 4000 9350 (1990) 32 (1992) 2640 50 86 612 733 2090 3680 3890 6180 7770
2026-04-19 12:30 11.31 4000 9350 (1990) 32 (1992) 2640 50 86 612 733 2090 3680 3890 6180 7770
2026-04-19 11:30 11.30 3990 9350 (1990) 32 (1992) 2640 50 86 612 733 2090 3680 3890 6180 7770
2026-04-19 10:30 11.30 3990 9350 (1990) 32 (1992) 2640 50 86 612 733 2090 3680 3890 6180 7770
2026-04-19 09:30 11.28 3960 9350 (1990) 32 (1992) 2640 50 86 612 733 2090 3680 3890 6180 7770
2026-04-19 08:30 11.22 3890 9350 (1990) 32 (1992) 2640 50 86 612 733 2090 3680 3890 6180 7770
2026-04-19 07:30 10.90 3490 9350 (1990) 32 (1992) 2640 50 86 612 733 2090 3680 3890 6180 7770
2026-04-19 06:30 6.52 70 9350 (1990) 32 (1992) 2640 50 86 612 733 2090 3680 3890 6180 7770
2026-04-19 05:30 6.55 75 9350 (1990) 32 (1992) 2640 50 86 612 733 2090 3680 3890 6180 7770
2026-04-19 04:30 6.60 84 9350 (1990) 32 (1992) 2640 50 86 612 733 2090 3680 3890 6180 7770
2026-04-19 03:30 6.68 100 9350 (1990) 32 (1992) 2640 50 86 612 733 2090 3680 3890 6180 7770
2026-04-19 02:30 6.79 125 9350 (1990) 32 (1992) 2640 50 86 612 733 2090 3680 3890 6180 7770
2026-04-19 01:30 6.98 177 9350 (1990) 32 (1992) 2640 50 86 612 733 2090 3680 3890 6180 7770
2026-04-19 00:30 7.37 324 9350 (1990) 32 (1992) 2640 50 86 612 733 2090 3680 3890 6180 7770
2026-04-18 23:30 8.48 1030 9350 (1990) 32 (1992) 2640 50 86 612 733 2090 3680 3890 6180 7770
2026-04-18 22:30 10.78 3350 9350 (1965) 21 (2011) 2450 43 63 249 625 2010 3670 3820 5780 6830
2026-04-18 21:30 11.34 4040 9350 (1965) 21 (2011) 2450 43 63 249 625 2010 3670 3820 5780 6830
2026-04-18 20:30 11.34 4040 9350 (1965) 21 (2011) 2450 43 63 249 625 2010 3670 3820 5780 6830
2026-04-18 19:30 11.33 4020 9350 (1965) 21 (2011) 2450 43 63 249 625 2010 3670 3820 5780 6830
2026-04-18 18:30 11.33 4020 9350 (1965) 21 (2011) 2450 43 63 249 625 2010 3670 3820 5780 6830
2026-04-18 17:30 11.32 4010 9350 (1965) 21 (2011) 2450 43 63 249 625 2010 3670 3820 5780 6830
2026-04-18 16:30 11.32 4010 9350 (1965) 21 (2011) 2450 43 63 249 625 2010 3670 3820 5780 6830
2026-04-18 15:30 11.32 4010 9350 (1965) 21 (2011) 2450 43 63 249 625 2010 3670 3820 5780 6830
2026-04-18 14:30 11.32 4010 9350 (1965) 21 (2011) 2450 43 63 249 625 2010 3670 3820 5780 6830
2026-04-18 13:30 11.32 4010 9350 (1965) 21 (2011) 2450 43 63 249 625 2010 3670 3820 5780 6830
2026-04-18 12:30 11.32 4010 9350 (1965) 21 (2011) 2450 43 63 249 625 2010 3670 3820 5780 6830
2026-04-18 11:30 11.31 4000 9350 (1965) 21 (2011) 2450 43 63 249 625 2010 3670 3820 5780 6830
2026-04-18 10:30 11.30 3990 9350 (1965) 21 (2011) 2450 43 63 249 625 2010 3670 3820 5780 6830
2026-04-18 09:30 11.28 3960 9350 (1965) 21 (2011) 2450 43 63 249 625 2010 3670 3820 5780 6830
2026-04-18 08:30 11.23 3900 9350 (1965) 21 (2011) 2450 43 63 249 625 2010 3670 3820 5780 6830
2026-04-18 07:30 10.93 3530 9350 (1965) 21 (2011) 2450 43 63 249 625 2010 3670 3820 5780 6830
2026-04-18 06:30 6.56 77 9350 (1965) 21 (2011) 2450 43 63 249 625 2010 3670 3820 5780 6830
2026-04-18 05:30 6.55 75 9350 (1965) 21 (2011) 2450 43 63 249 625 2010 3670 3820 5780 6830
2026-04-18 04:30 6.61 86 9350 (1965) 21 (2011) 2450 43 63 249 625 2010 3670 3820 5780 6830
2026-04-18 03:30 6.69 102 9350 (1965) 21 (2011) 2450 43 63 249 625 2010 3670 3820 5780 6830
2026-04-18 02:30 6.81 130 9350 (1965) 21 (2011) 2450 43 63 249 625 2010 3670 3820 5780 6830
2026-04-18 01:30 6.99 180 9350 (1965) 21 (2011) 2450 43 63 249 625 2010 3670 3820 5780 6830
2026-04-18 00:30 7.36 319 9350 (1965) 21 (2011) 2450 43 63 249 625 2010 3670 3820 5780 6830
2026-04-17 23:30 8.47 1020 9350 (1965) 21 (2011) 2450 43 63 249 625 2010 3670 3820 5780 6830
2026-04-17 22:30 10.75 3310 9800 (1993) 24 (2011) 2340 46 61 250 389 1860 3760 4120 5710 6910
2026-04-17 21:30 11.30 3990 9800 (1993) 24 (2011) 2340 46 61 250 389 1860 3760 4120 5710 6910
2026-04-17 20:30 11.30 3990 9800 (1993) 24 (2011) 2340 46 61 250 389 1860 3760 4120 5710 6910
2026-04-17 19:30 11.30 3990 9800 (1993) 24 (2011) 2340 46 61 250 389 1860 3760 4120 5710 6910
2026-04-17 18:30 11.31 4000 9800 (1993) 24 (2011) 2340 46 61 250 389 1860 3760 4120 5710 6910
2026-04-17 17:30 11.30 3990 9800 (1993) 24 (2011) 2340 46 61 250 389 1860 3760 4120 5710 6910
2026-04-17 16:30 11.29 3970 9800 (1993) 24 (2011) 2340 46 61 250 389 1860 3760 4120 5710 6910
2026-04-17 15:30 11.30 3990 9800 (1993) 24 (2011) 2340 46 61 250 389 1860 3760 4120 5710 6910
2026-04-17 14:30 11.30 3990 9800 (1993) 24 (2011) 2340 46 61 250 389 1860 3760 4120 5710 6910
2026-04-17 13:30 11.28 3960 9800 (1993) 24 (2011) 2340 46 61 250 389 1860 3760 4120 5710 6910
2026-04-17 12:30 11.28 3960 9800 (1993) 24 (2011) 2340 46 61 250 389 1860 3760 4120 5710 6910
2026-04-17 11:30 11.27 3950 9800 (1993) 24 (2011) 2340 46 61 250 389 1860 3760 4120 5710 6910
2026-04-17 10:30 11.25 3920 9800 (1993) 24 (2011) 2340 46 61 250 389 1860 3760 4120 5710 6910
2026-04-17 09:30 11.22 3890 9800 (1993) 24 (2011) 2340 46 61 250 389 1860 3760 4120 5710 6910
2026-04-17 08:30 11.17 3820 9800 (1993) 24 (2011) 2340 46 61 250 389 1860 3760 4120 5710 6910
2026-04-17 07:30 10.87 3460 9800 (1993) 24 (2011) 2340 46 61 250 389 1860 3760 4120 5710 6910
2026-04-17 06:30 6.48 63 9800 (1993) 24 (2011) 2340 46 61 250 389 1860 3760 4120 5710 6910
2026-04-17 05:30 6.48 63 9800 (1993) 24 (2011) 2340 46 61 250 389 1860 3760 4120 5710 6910
2026-04-17 04:30 6.52 70 9800 (1993) 24 (2011) 2340 46 61 250 389 1860 3760 4120 5710 6910
2026-04-17 03:30 6.57 78 9800 (1993) 24 (2011) 2340 46 61 250 389 1860 3760 4120 5710 6910
2026-04-17 02:30 6.65 94 9800 (1993) 24 (2011) 2340 46 61 250 389 1860 3760 4120 5710 6910
2026-04-17 01:30 6.77 120 9800 (1993) 24 (2011) 2340 46 61 250 389 1860 3760 4120 5710 6910
2026-04-17 00:30 6.95 168 9800 (1993) 24 (2011) 2340 46 61 250 389 1860 3760 4120 5710 6910
2026-04-16 23:30 7.34 310 9800 (1993) 24 (2011) 2340 46 61 250 389 1860 3760 4120 5710 6910
2026-04-16 22:30 8.46 1010 9750 (1965) 21 (2017) 2500 35 62 303 632 2040 3770 4210 5780 7370
2026-04-16 21:30 10.76 3330 9750 (1965) 21 (2017) 2500 35 62 303 632 2040 3770 4210 5780 7370
2026-04-16 20:30 11.31 4000 9750 (1965) 21 (2017) 2500 35 62 303 632 2040 3770 4210 5780 7370
2026-04-16 19:30 11.32 4010 9750 (1965) 21 (2017) 2500 35 62 303 632 2040 3770 4210 5780 7370
2026-04-16 18:30 11.30 3990 9750 (1965) 21 (2017) 2500 35 62 303 632 2040 3770 4210 5780 7370
2026-04-16 17:30 11.30 3990 9750 (1965) 21 (2017) 2500 35 62 303 632 2040 3770 4210 5780 7370
2026-04-16 16:30 11.28 3960 9750 (1965) 21 (2017) 2500 35 62 303 632 2040 3770 4210 5780 7370
2026-04-16 15:30 11.25 3920 9750 (1965) 21 (2017) 2500 35 62 303 632 2040 3770 4210 5780 7370
2026-04-16 14:30 10.95 3550 9750 (1965) 21 (2017) 2500 35 62 303 632 2040 3770 4210 5780 7370
2026-04-16 13:30 6.66 96 9750 (1965) 21 (2017) 2500 35 62 303 632 2040 3770 4210 5780 7370
2026-04-16 12:30 6.54 73 9750 (1965) 21 (2017) 2500 35 62 303 632 2040 3770 4210 5780 7370
2026-04-16 11:30 6.55 75 9750 (1965) 21 (2017) 2500 35 62 303 632 2040 3770 4210 5780 7370
2026-04-16 10:30 6.56 77 9750 (1965) 21 (2017) 2500 35 62 303 632 2040 3770 4210 5780 7370
2026-04-16 09:30 6.57 78 9750 (1965) 21 (2017) 2500 35 62 303 632 2040 3770 4210 5780 7370
2026-04-16 08:30 6.58 80 9750 (1965) 21 (2017) 2500 35 62 303 632 2040 3770 4210 5780 7370
2026-04-16 07:30 6.59 82 9750 (1965) 21 (2017) 2500 35 62 303 632 2040 3770 4210 5780 7370
2026-04-16 06:30 6.60 84 9750 (1965) 21 (2017) 2500 35 62 303 632 2040 3770 4210 5780 7370
2026-04-16 05:30 6.62 88 9750 (1965) 21 (2017) 2500 35 62 303 632 2040 3770 4210 5780 7370
2026-04-16 04:30 6.64 92 9750 (1965) 21 (2017) 2500 35 62 303 632 2040 3770 4210 5780 7370
2026-04-16 03:30 6.67 98 9750 (1965) 21 (2017) 2500 35 62 303 632 2040 3770 4210 5780 7370
2026-04-16 02:30 6.71 106 9750 (1965) 21 (2017) 2500 35 62 303 632 2040 3770 4210 5780 7370
2026-04-16 01:30 6.78 122 9750 (1965) 21 (2017) 2500 35 62 303 632 2040 3770 4210 5780 7370
2026-04-16 00:30 6.87 145 9750 (1965) 21 (2017) 2500 35 62 303 632 2040 3770 4210 5780 7370
2026-04-15 23:30 7.04 196 9750 (1965) 21 (2017) 2500 35 62 303 632 2040 3770 4210 5780 7370
2026-04-15 22:30 7.41 342 7710 (1998) 17 (2001) 2570 33 91 673 806 2040 3870 4610 5790 7340
2026-04-15 21:30 8.49 1040 7710 (1998) 17 (2001) 2570 33 91 673 806 2040 3870 4610 5790 7340
2026-04-15 20:30 10.77 3340 7710 (1998) 17 (2001) 2570 33 91 673 806 2040 3870 4610 5790 7340
2026-04-15 19:30 11.33 4020 7710 (1998) 17 (2001) 2570 33 91 673 806 2040 3870 4610 5790 7340
2026-04-15 18:30 11.32 4010 7710 (1998) 17 (2001) 2570 33 91 673 806 2040 3870 4610 5790 7340
2026-04-15 17:30 11.32 4010 7710 (1998) 17 (2001) 2570 33 91 673 806 2040 3870 4610 5790 7340
2026-04-15 16:30 11.30 3990 7710 (1998) 17 (2001) 2570 33 91 673 806 2040 3870 4610 5790 7340
2026-04-15 15:30 11.29 3970 7710 (1998) 17 (2001) 2570 33 91 673 806 2040 3870 4610 5790 7340
2026-04-15 14:30 11.25 3920 7710 (1998) 17 (2001) 2570 33 91 673 806 2040 3870 4610 5790 7340
2026-04-15 13:30 10.94 3540 7710 (1998) 17 (2001) 2570 33 91 673 806 2040 3870 4610 5790 7340
2026-04-15 12:30 6.70 104 7710 (1998) 17 (2001) 2570 33 91 673 806 2040 3870 4610 5790 7340
2026-04-15 11:30 6.56 77 7710 (1998) 17 (2001) 2570 33 91 673 806 2040 3870 4610 5790 7340
2026-04-15 10:30 6.57 78 7710 (1998) 17 (2001) 2570 33 91 673 806 2040 3870 4610 5790 7340
2026-04-15 09:30 6.57 78 7710 (1998) 17 (2001) 2570 33 91 673 806 2040 3870 4610 5790 7340
2026-04-15 08:30 6.58 80 7710 (1998) 17 (2001) 2570 33 91 673 806 2040 3870 4610 5790 7340
2026-04-15 07:30 6.60 84 7710 (1998) 17 (2001) 2570 33 91 673 806 2040 3870 4610 5790 7340
2026-04-15 06:30 6.61 86 7710 (1998) 17 (2001) 2570 33 91 673 806 2040 3870 4610 5790 7340
2026-04-15 05:30 6.64 92 7710 (1998) 17 (2001) 2570 33 91 673 806 2040 3870 4610 5790 7340
2026-04-15 04:30 6.67 98 7710 (1998) 17 (2001) 2570 33 91 673 806 2040 3870 4610 5790 7340
2026-04-15 03:30 6.72 108 7710 (1998) 17 (2001) 2570 33 91 673 806 2040 3870 4610 5790 7340
2026-04-15 02:30 6.81 130 7710 (1998) 17 (2001) 2570 33 91 673 806 2040 3870 4610 5790 7340
2026-04-15 01:30 6.92 159 7710 (1998) 17 (2001) 2570 33 91 673 806 2040 3870 4610 5790 7340
2026-04-15 00:30 7.10 216 7710 (1998) 17 (2001) 2570 33 91 673 806 2040 3870 4610 5790 7340
2026-04-14 23:30 7.48 376 7710 (1998) 17 (2001) 2570 33 91 673 806 2040 3870 4610 5790 7340
2026-04-14 22:30 8.49 1040 9830 (1957) 18 (2001) 2630 44 88 453 880 2110 3790 4000 5800 7550
2026-04-14 21:30 10.78 3350 9830 (1957) 18 (2001) 2630 44 88 453 880 2110 3790 4000 5800 7550
2026-04-14 20:30 11.35 4050 9830 (1957) 18 (2001) 2630 44 88 453 880 2110 3790 4000 5800 7550
2026-04-14 19:30 11.35 4050 9830 (1957) 18 (2001) 2630 44 88 453 880 2110 3790 4000 5800 7550
2026-04-14 18:30 11.34 4040 9830 (1957) 18 (2001) 2630 44 88 453 880 2110 3790 4000 5800 7550
2026-04-14 17:30 11.32 4010 9830 (1957) 18 (2001) 2630 44 88 453 880 2110 3790 4000 5800 7550
2026-04-14 16:30 11.30 3990 9830 (1957) 18 (2001) 2630 44 88 453 880 2110 3790 4000 5800 7550
2026-04-14 15:30 11.26 3940 9830 (1957) 18 (2001) 2630 44 88 453 880 2110 3790 4000 5800 7550
2026-04-14 14:30 10.95 3550 9830 (1957) 18 (2001) 2630 44 88 453 880 2110 3790 4000 5800 7550
2026-04-14 13:30 6.60 84 9830 (1957) 18 (2001) 2630 44 88 453 880 2110 3790 4000 5800 7550
2026-04-14 12:30 6.51 68 9830 (1957) 18 (2001) 2630 44 88 453 880 2110 3790 4000 5800 7550
2026-04-14 11:30 6.52 70 9830 (1957) 18 (2001) 2630 44 88 453 880 2110 3790 4000 5800 7550
2026-04-14 09:30 6.53 71 9830 (1957) 18 (2001) 2630 44 88 453 880 2110 3790 4000 5800 7550
2026-04-14 08:30 6.54 73 9830 (1957) 18 (2001) 2630 44 88 453 880 2110 3790 4000 5800 7550
2026-04-14 07:30 6.56 77 9830 (1957) 18 (2001) 2630 44 88 453 880 2110 3790 4000 5800 7550
2026-04-14 06:30 6.58 80 9830 (1957) 18 (2001) 2630 44 88 453 880 2110 3790 4000 5800 7550
2026-04-14 05:30 6.59 82 9830 (1957) 18 (2001) 2630 44 88 453 880 2110 3790 4000 5800 7550
2026-04-14 04:30 6.62 88 9830 (1957) 18 (2001) 2630 44 88 453 880 2110 3790 4000 5800 7550
2026-04-14 03:30 6.65 94 9830 (1957) 18 (2001) 2630 44 88 453 880 2110 3790 4000 5800 7550
2026-04-14 02:30 6.69 102 9830 (1957) 18 (2001) 2630 44 88 453 880 2110 3790 4000 5800 7550
2026-04-14 01:30 6.76 117 9830 (1957) 18 (2001) 2630 44 88 453 880 2110 3790 4000 5800 7550
2026-04-14 00:30 6.85 140 9830 (1957) 18 (2001) 2630 44 88 453 880 2110 3790 4000 5800 7550
2026-04-13 23:30 7.02 189 9830 (1957) 18 (2001) 2630 44 88 453 880 2110 3790 4000 5800 7550
2026-04-13 22:30 7.39 333 12200 (1957) 25 (2017) 2710 52 166 609 865 2090 3790 3930 6680 8880
2026-04-13 21:30 8.49 1040 12200 (1957) 25 (2017) 2710 52 166 609 865 2090 3790 3930 6680 8880
2026-04-13 20:30 10.80 3370 12200 (1957) 25 (2017) 2710 52 166 609 865 2090 3790 3930 6680 8880
2026-04-13 19:30 11.37 4080 12200 (1957) 25 (2017) 2710 52 166 609 865 2090 3790 3930 6680 8880
2026-04-13 18:30 11.36 4060 12200 (1957) 25 (2017) 2710 52 166 609 865 2090 3790 3930 6680 8880
2026-04-13 17:30 11.36 4060 12200 (1957) 25 (2017) 2710 52 166 609 865 2090 3790 3930 6680 8880
2026-04-13 16:30 11.35 4050 12200 (1957) 25 (2017) 2710 52 166 609 865 2090 3790 3930 6680 8880
2026-04-13 15:30 11.32 4010 12200 (1957) 25 (2017) 2710 52 166 609 865 2090 3790 3930 6680 8880
2026-04-13 14:30 11.28 3960 12200 (1957) 25 (2017) 2710 52 166 609 865 2090 3790 3930 6680 8880
2026-04-13 13:30 10.94 3540 12200 (1957) 25 (2017) 2710 52 166 609 865 2090 3790 3930 6680 8880
2026-04-13 12:30 6.62 88 12200 (1957) 25 (2017) 2710 52 166 609 865 2090 3790 3930 6680 8880
2026-04-13 11:30 6.51 68 12200 (1957) 25 (2017) 2710 52 166 609 865 2090 3790 3930 6680 8880
2026-04-13 10:30 6.49 65 12200 (1957) 25 (2017) 2710 52 166 609 865 2090 3790 3930 6680 8880
2026-04-13 09:30 6.43 56 12200 (1957) 25 (2017) 2710 52 166 609 865 2090 3790 3930 6680 8880
2026-04-13 08:30 6.40 51 12200 (1957) 25 (2017) 2710 52 166 609 865 2090 3790 3930 6680 8880
2026-04-13 07:30 6.42 54 12200 (1957) 25 (2017) 2710 52 166 609 865 2090 3790 3930 6680 8880
2026-04-13 06:30 6.45 59 12200 (1957) 25 (2017) 2710 52 166 609 865 2090 3790 3930 6680 8880
2026-04-13 05:30 6.48 63 12200 (1957) 25 (2017) 2710 52 166 609 865 2090 3790 3930 6680 8880
2026-04-13 04:30 6.53 71 12200 (1957) 25 (2017) 2710 52 166 609 865 2090 3790 3930 6680 8880
2026-04-13 03:30 6.58 80 12200 (1957) 25 (2017) 2710 52 166 609 865 2090 3790 3930 6680 8880
2026-04-13 02:30 6.66 96 12200 (1957) 25 (2017) 2710 52 166 609 865 2090 3790 3930 6680 8880
2026-04-13 01:30 6.78 122 12200 (1957) 25 (2017) 2710 52 166 609 865 2090 3790 3930 6680 8880
2026-04-13 00:30 6.97 174 12200 (1957) 25 (2017) 2710 52 166 609 865 2090 3790 3930 6680 8880
2026-04-12 23:30 7.36 319 12200 (1957) 25 (2017) 2710 52 166 609 865 2090 3790 3930 6680 8880
2026-04-12 22:30 8.47 1020 14000 (1957) 34 (2006) 2870 55 95 514 855 2160 3740 3830 6900 9380
2026-04-12 21:30 10.78 3350 14000 (1957) 34 (2006) 2870 55 95 514 855 2160 3740 3830 6900 9380
2026-04-12 20:30 11.36 4060 14000 (1957) 34 (2006) 2870 55 95 514 855 2160 3740 3830 6900 9380
2026-04-12 19:30 11.37 4080 14000 (1957) 34 (2006) 2870 55 95 514 855 2160 3740 3830 6900 9380
2026-04-12 18:30 11.36 4060 14000 (1957) 34 (2006) 2870 55 95 514 855 2160 3740 3830 6900 9380
2026-04-12 17:30 11.34 4040 14000 (1957) 34 (2006) 2870 55 95 514 855 2160 3740 3830 6900 9380
2026-04-12 16:30 11.33 4020 14000 (1957) 34 (2006) 2870 55 95 514 855 2160 3740 3830 6900 9380
2026-04-12 15:30 11.31 4000 14000 (1957) 34 (2006) 2870 55 95 514 855 2160 3740 3830 6900 9380
2026-04-12 14:30 11.30 3990 14000 (1957) 34 (2006) 2870 55 95 514 855 2160 3740 3830 6900 9380
2026-04-12 13:30 11.30 3990 14000 (1957) 34 (2006) 2870 55 95 514 855 2160 3740 3830 6900 9380
2026-04-12 12:30 11.29 3970 14000 (1957) 34 (2006) 2870 55 95 514 855 2160 3740 3830 6900 9380
2026-04-12 11:30 11.29 3970 14000 (1957) 34 (2006) 2870 55 95 514 855 2160 3740 3830 6900 9380
2026-04-12 10:30 11.28 3960 14000 (1957) 34 (2006) 2870 55 95 514 855 2160 3740 3830 6900 9380
2026-04-12 09:30 11.27 3950 14000 (1957) 34 (2006) 2870 55 95 514 855 2160 3740 3830 6900 9380
2026-04-12 08:30 11.25 3920 14000 (1957) 34 (2006) 2870 55 95 514 855 2160 3740 3830 6900 9380
2026-04-12 07:30 11.20 3860 14000 (1957) 34 (2006) 2870 55 95 514 855 2160 3740 3830 6900 9380
2026-04-12 06:30 10.90 3490 14000 (1957) 34 (2006) 2870 55 95 514 855 2160 3740 3830 6900 9380
2026-04-12 05:30 6.51 68 14000 (1957) 34 (2006) 2870 55 95 514 855 2160 3740 3830 6900 9380
2026-04-12 04:30 6.52 70 14000 (1957) 34 (2006) 2870 55 95 514 855 2160 3740 3830 6900 9380
2026-04-12 03:30 6.58 80 14000 (1957) 34 (2006) 2870 55 95 514 855 2160 3740 3830 6900 9380
2026-04-12 02:30 6.66 96 14000 (1957) 34 (2006) 2870 55 95 514 855 2160 3740 3830 6900 9380
2026-04-12 01:30 6.77 120 14000 (1957) 34 (2006) 2870 55 95 514 855 2160 3740 3830 6900 9380
2026-04-12 00:30 6.96 171 14000 (1957) 34 (2006) 2870 55 95 514 855 2160 3740 3830 6900 9380
2026-04-11 23:30 7.36 319 14000 (1957) 34 (2006) 2870 55 95 514 855 2160 3740 3830 6900 9380
2026-04-11 22:30 8.46 1010 14900 (1957) 34 (2006) 2780 65 92 299 643 2080 3720 3890 7220 9630
2026-04-11 21:30 10.75 3310 14900 (1957) 34 (2006) 2780 65 92 299 643 2080 3720 3890 7220 9630
2026-04-11 20:30 11.30 3990 14900 (1957) 34 (2006) 2780 65 92 299 643 2080 3720 3890 7220 9630
2026-04-11 19:30 11.30 3990 14900 (1957) 34 (2006) 2780 65 92 299 643 2080 3720 3890 7220 9630
2026-04-11 18:30 11.31 4000 14900 (1957) 34 (2006) 2780 65 92 299 643 2080 3720 3890 7220 9630
2026-04-11 17:30 11.31 4000 14900 (1957) 34 (2006) 2780 65 92 299 643 2080 3720 3890 7220 9630
2026-04-11 16:30 11.30 3990 14900 (1957) 34 (2006) 2780 65 92 299 643 2080 3720 3890 7220 9630
2026-04-11 15:30 11.30 3990 14900 (1957) 34 (2006) 2780 65 92 299 643 2080 3720 3890 7220 9630
2026-04-11 14:30 11.30 3990 14900 (1957) 34 (2006) 2780 65 92 299 643 2080 3720 3890 7220 9630
2026-04-11 13:30 11.29 3970 14900 (1957) 34 (2006) 2780 65 92 299 643 2080 3720 3890 7220 9630
2026-04-11 12:30 11.30 3990 14900 (1957) 34 (2006) 2780 65 92 299 643 2080 3720 3890 7220 9630
2026-04-11 11:30 11.28 3960 14900 (1957) 34 (2006) 2780 65 92 299 643 2080 3720 3890 7220 9630
2026-04-11 10:30 11.28 3960 14900 (1957) 34 (2006) 2780 65 92 299 643 2080 3720 3890 7220 9630
2026-04-11 09:30 11.26 3940 14900 (1957) 34 (2006) 2780 65 92 299 643 2080 3720 3890 7220 9630
2026-04-11 08:30 11.24 3910 14900 (1957) 34 (2006) 2780 65 92 299 643 2080 3720 3890 7220 9630
2026-04-11 07:30 11.19 3850 14900 (1957) 34 (2006) 2780 65 92 299 643 2080 3720 3890 7220 9630
2026-04-11 06:30 10.90 3490 14900 (1957) 34 (2006) 2780 65 92 299 643 2080 3720 3890 7220 9630
2026-04-11 05:30 6.53 71 14900 (1957) 34 (2006) 2780 65 92 299 643 2080 3720 3890 7220 9630
2026-04-11 04:30 6.53 71 14900 (1957) 34 (2006) 2780 65 92 299 643 2080 3720 3890 7220 9630
2026-04-11 03:30 6.59 82 14900 (1957) 34 (2006) 2780 65 92 299 643 2080 3720 3890 7220 9630
2026-04-11 02:30 6.67 98 14900 (1957) 34 (2006) 2780 65 92 299 643 2080 3720 3890 7220 9630
2026-04-11 01:30 6.79 125 14900 (1957) 34 (2006) 2780 65 92 299 643 2080 3720 3890 7220 9630
2026-04-11 00:30 6.97 174 14900 (1957) 34 (2006) 2780 65 92 299 643 2080 3720 3890 7220 9630
2026-04-10 23:30 7.36 319 14900 (1957) 34 (2006) 2780 65 92 299 643 2080 3720 3890 7220 9630
2026-04-10 22:30 8.46 1010 15100 (1957) 34 (2006) 2700 45 86 205 413 2040 3650 3810 7110 9990
2026-04-10 21:30 10.75 3310 15100 (1957) 34 (2006) 2700 45 86 205 413 2040 3650 3810 7110 9990
2026-04-10 20:30 11.29 3970 15100 (1957) 34 (2006) 2700 45 86 205 413 2040 3650 3810 7110 9990
2026-04-10 19:30 11.30 3990 15100 (1957) 34 (2006) 2700 45 86 205 413 2040 3650 3810 7110 9990
2026-04-10 18:30 11.30 3990 15100 (1957) 34 (2006) 2700 45 86 205 413 2040 3650 3810 7110 9990
2026-04-10 17:30 11.30 3990 15100 (1957) 34 (2006) 2700 45 86 205 413 2040 3650 3810 7110 9990
2026-04-10 16:30 11.29 3970 15100 (1957) 34 (2006) 2700 45 86 205 413 2040 3650 3810 7110 9990
2026-04-10 15:30 11.29 3970 15100 (1957) 34 (2006) 2700 45 86 205 413 2040 3650 3810 7110 9990
2026-04-10 14:30 11.28 3960 15100 (1957) 34 (2006) 2700 45 86 205 413 2040 3650 3810 7110 9990
2026-04-10 13:30 11.27 3950 15100 (1957) 34 (2006) 2700 45 86 205 413 2040 3650 3810 7110 9990
2026-04-10 12:30 11.28 3960 15100 (1957) 34 (2006) 2700 45 86 205 413 2040 3650 3810 7110 9990
2026-04-10 11:30 11.28 3960 15100 (1957) 34 (2006) 2700 45 86 205 413 2040 3650 3810 7110 9990
2026-04-10 10:30 11.26 3940 15100 (1957) 34 (2006) 2700 45 86 205 413 2040 3650 3810 7110 9990
2026-04-10 09:30 11.25 3920 15100 (1957) 34 (2006) 2700 45 86 205 413 2040 3650 3810 7110 9990
2026-04-10 08:30 11.22 3890 15100 (1957) 34 (2006) 2700 45 86 205 413 2040 3650 3810 7110 9990
2026-04-10 07:30 11.19 3850 15100 (1957) 34 (2006) 2700 45 86 205 413 2040 3650 3810 7110 9990
2026-04-10 06:30 10.87 3460 15100 (1957) 34 (2006) 2700 45 86 205 413 2040 3650 3810 7110 9990
2026-04-10 05:30 6.57 78 15100 (1957) 34 (2006) 2700 45 86 205 413 2040 3650 3810 7110 9990
2026-04-10 04:30 6.58 80 15100 (1957) 34 (2006) 2700 45 86 205 413 2040 3650 3810 7110 9990
2026-04-10 03:30 6.67 98 15100 (1957) 34 (2006) 2700 45 86 205 413 2040 3650 3810 7110 9990
2026-04-10 02:30 6.79 125 15100 (1957) 34 (2006) 2700 45 86 205 413 2040 3650 3810 7110 9990
2026-04-10 01:30 7.01 186 15100 (1957) 34 (2006) 2700 45 86 205 413 2040 3650 3810 7110 9990
2026-04-10 00:30 7.46 366 15100 (1957) 34 (2006) 2700 45 86 205 413 2040 3650 3810 7110 9990
2026-04-09 23:30 8.77 1270 15100 (1957) 34 (2006) 2700 45 86 205 413 2040 3650 3810 7110 9990

A total of 726 rows are displayed for years 1954 through 2025.